Observation data for Snyder SSW on 12/05/2019      Previous  Date       Current Mesonet Observations  Soil Data  Daily Summary Page  Observations in Plain Language
KWT1 050600Z 23009KT 09/01 A2999 RMK A01 T00900011  RH  058%=      5-min Rain = 0
KWT1 050601Z 23009KT 09/01 A2999 RMK A01 T00900011  RH  058%=      5-min Rain = 0
KWT1 050602Z 23009KT 09/01 A2999 RMK A01 T00890011  RH  058%=      5-min Rain = 0
KWT1 050603Z 23009KT 09/01 A2999 RMK A01 T00880010  RH  058%=      5-min Rain = 0
KWT1 050604Z 23009KT 09/01 A2999 RMK A01 T00880011  RH  058%=      5-min Rain = 0
KWT1 050605Z 23009KT 09/01 A2999 RMK A01 T00890011  RH  058%=      5-min Rain = 0
KWT1 050606Z 23009KT 09/01 A2999 RMK A01 T00890011  RH  058%=      5-min Rain = 0
KWT1 050607Z 22009KT 09/01 A2999 RMK A01 T00910011  RH  057%=      5-min Rain = 0
KWT1 050608Z 23009KT 09/01 A2999 RMK A01 T00920011  RH  057%=      5-min Rain = 0
KWT1 050609Z 23009KT 09/01 A2999 RMK A01 T00920011  RH  057%=      5-min Rain = 0
KWT1 050610Z 23009KT 09/01 A2999 RMK A01 T00920010  RH  057%=      5-min Rain = 0
KWT1 050611Z 23008KT 09/01 A2999 RMK A01 T00910010  RH  057%=      5-min Rain = 0
KWT1 050612Z 23008KT 09/01 A2999 RMK A01 T00900010  RH  057%=      5-min Rain = 0
KWT1 050613Z 23008KT 09/01 A2999 RMK A01 T00900010  RH  057%=      5-min Rain = 0
KWT1 050614Z 23008KT 09/01 A2999 RMK A01 T00890010  RH  058%=      5-min Rain = 0
KWT1 050615Z 22008KT 09/01 A2999 RMK A01 T00880010  RH  058%=      5-min Rain = 0
KWT1 050616Z 22008KT 09/01 A2999 RMK A01 T00880010  RH  058%=      5-min Rain = 0
KWT1 050617Z 23007KT 09/01 A2999 RMK A01 T00870010  RH  058%=      5-min Rain = 0
KWT1 050618Z 23008KT 09/01 A2999 RMK A01 T00870010  RH  059%=      5-min Rain = 0
KWT1 050619Z 23008KT 09/01 A2999 RMK A01 T00860010  RH  059%=      5-min Rain = 0
KWT1 050620Z 23008KT 09/01 A2999 RMK A01 T00850010  RH  059%=      5-min Rain = 0
KWT1 050621Z 23007KT 08/01 A2999 RMK A01 T00840010  RH  060%=      5-min Rain = 0
KWT1 050622Z 23006KT 08/01 A2999 RMK A01 T00840010  RH  060%=      5-min Rain = 0
KWT1 050623Z 24007KT 08/01 A2999 RMK A01 T00830010  RH  060%=      5-min Rain = 0
KWT1 050624Z 24008KT 08/01 A2999 RMK A01 T00820010  RH  061%=      5-min Rain = 0
KWT1 050625Z 23008KT 08/01 A2999 RMK A01 T00820011  RH  061%=      5-min Rain = 0
KWT1 050626Z 23008KT 08/01 A2999 RMK A01 T00810011  RH  061%=      5-min Rain = 0
KWT1 050627Z 23008KT 08/01 A2999 RMK A01 T00810010  RH  061%=      5-min Rain = 0
KWT1 050628Z 23008KT 08/01 A2999 RMK A01 T00820011  RH  061%=      5-min Rain = 0
KWT1 050629Z 23009KT 08/01 A2999 RMK A01 T00820011  RH  061%=      5-min Rain = 0
KWT1 050630Z 24009KT 08/01 A2999 RMK A01 T00820011  RH  061%=      5-min Rain = 0
KWT1 050631Z 23009KT 08/01 A2999 RMK A01 T00830011  RH  060%=      5-min Rain = 0
KWT1 050632Z 23009KT 08/01 A2999 RMK A01 T00840011  RH  060%=      5-min Rain = 0
KWT1 050633Z 23009KT 09/01 A2999 RMK A01 T00850011  RH  060%=      5-min Rain = 0
KWT1 050634Z 23009KT 09/01 A2999 RMK A01 T00860011  RH  059%=      5-min Rain = 0
KWT1 050635Z 23009KT 09/01 A2999 RMK A01 T00870011  RH  059%=      5-min Rain = 0
KWT1 050636Z 23008KT 09/01 A2999 RMK A01 T00870011  RH  059%=      5-min Rain = 0
KWT1 050637Z 23008KT 09/01 A2999 RMK A01 T00870011  RH  059%=      5-min Rain = 0
KWT1 050638Z 23009KT 09/01 A2999 RMK A01 T00880011  RH  058%=      5-min Rain = 0
KWT1 050639Z 23009KT 09/01 A2999 RMK A01 T00880011  RH  058%=      5-min Rain = 0
KWT1 050640Z 23009KT 09/01 A2999 RMK A01 T00880011  RH  058%=      5-min Rain = 0
KWT1 050641Z 23008KT 09/01 A2999 RMK A01 T00890011  RH  058%=      5-min Rain = 0
KWT1 050642Z 23008KT 09/01 A2998 RMK A01 T00890011  RH  058%=      5-min Rain = 0
KWT1 050643Z 23008KT 09/01 A2998 RMK A01 T00880011  RH  058%=      5-min Rain = 0
KWT1 050644Z 23008KT 09/01 A2998 RMK A01 T00880011  RH  058%=      5-min Rain = 0
KWT1 050645Z 23008KT 09/01 A2998 RMK A01 T00880011  RH  059%=      5-min Rain = 0
KWT1 050646Z 23008KT 09/01 A2998 RMK A01 T00880011  RH  059%=      5-min Rain = 0
KWT1 050647Z 23008KT 09/01 A2998 RMK A01 T00880011  RH  059%=      5-min Rain = 0
KWT1 050648Z 22009KT 09/01 A2998 RMK A01 T00870011  RH  059%=      5-min Rain = 0
KWT1 050649Z 23009KT 09/01 A2998 RMK A01 T00870011  RH  059%=      5-min Rain = 0
KWT1 050650Z 23009KT 09/01 A2998 RMK A01 T00870011  RH  059%=      5-min Rain = 0
KWT1 050651Z 22009KT 09/01 A2998 RMK A01 T00870011  RH  059%=      5-min Rain = 0
KWT1 050652Z 22009KT 09/01 A2998 RMK A01 T00870011  RH  059%=      5-min Rain = 0
KWT1 050653Z 22009KT 09/01 A2998 RMK A01 T00880011  RH  059%=      5-min Rain = 0
KWT1 050654Z 22009KT 09/01 A2998 RMK A01 T00870011  RH  059%=      5-min Rain = 0
KWT1 050655Z 22009KT 09/01 A2998 RMK A01 T00880011  RH  058%=      5-min Rain = 0
KWT1 050656Z 22009KT 09/01 A2998 RMK A01 T00880011  RH  058%=      5-min Rain = 0
KWT1 050657Z 22009KT 09/01 A2998 RMK A01 T00880011  RH  058%=      5-min Rain = 0
KWT1 050658Z 22009KT 09/01 A2998 RMK A01 T00890011  RH  058%=      5-min Rain = 0
KWT1 050659Z 22009KT 09/01 A2998 RMK A01 T00890011  RH  058%=      5-min Rain = 0
KWT1 050700Z 22009KT 09/01 A2998 RMK A01 T00890011  RH  058%=      5-min Rain = 0
KWT1 050701Z 22009KT 09/01 A2998 RMK A01 T00890011  RH  058%=      5-min Rain = 0
KWT1 050702Z 23009KT 09/01 A2998 RMK A01 T00900011  RH  058%=      5-min Rain = 0
KWT1 050703Z 23008KT 09/01 A2998 RMK A01 T00900011  RH  058%=      5-min Rain = 0
KWT1 050704Z 23008KT 09/01 A2998 RMK A01 T00910011  RH  058%=      5-min Rain = 0
KWT1 050705Z 23008KT 09/01 A2998 RMK A01 T00910012  RH  057%=      5-min Rain = 0
KWT1 050706Z 23008KT 09/01 A2998 RMK A01 T00910011  RH  057%=      5-min Rain = 0
KWT1 050707Z 22008KT 09/01 A2998 RMK A01 T00910011  RH  057%=      5-min Rain = 0
KWT1 050708Z 22008KT 09/01 A2998 RMK A01 T00910011  RH  057%=      5-min Rain = 0
KWT1 050709Z 22008KT 09/01 A2998 RMK A01 T00910011  RH  057%=      5-min Rain = 0
KWT1 050710Z 22008KT 09/01 A2997 RMK A01 T00910011  RH  057%=      5-min Rain = 0
KWT1 050711Z 22008KT 09/01 A2997 RMK A01 T00910011  RH  057%=      5-min Rain = 0
KWT1 050712Z 23008KT 09/01 A2997 RMK A01 T00920011  RH  057%=      5-min Rain = 0
KWT1 050713Z 22008KT 09/01 A2997 RMK A01 T00920011  RH  057%=      5-min Rain = 0
KWT1 050714Z 22008KT 09/01 A2997 RMK A01 T00920011  RH  057%=      5-min Rain = 0
KWT1 050715Z 22008KT 09/01 A2997 RMK A01 T00920011  RH  057%=      5-min Rain = 0
KWT1 050716Z 22008KT 09/01 A2998 RMK A01 T00920012  RH  057%=      5-min Rain = 0
KWT1 050717Z 22008KT 09/01 A2998 RMK A01 T00920012  RH  057%=      5-min Rain = 0
KWT1 050718Z 22008KT 09/01 A2998 RMK A01 T00920012  RH  057%=      5-min Rain = 0
KWT1 050719Z 23008KT 09/01 A2998 RMK A01 T00920012  RH  057%=      5-min Rain = 0
KWT1 050720Z 23007KT 09/01 A2997 RMK A01 T00930012  RH  057%=      5-min Rain = 0
KWT1 050721Z 22007KT 09/01 A2997 RMK A01 T00940013  RH  057%=      5-min Rain = 0
KWT1 050722Z 23008KT 09/01 A2997 RMK A01 T00940013  RH  057%=      5-min Rain = 0
KWT1 050723Z 22008KT 10/01 A2997 RMK A01 T00950013  RH  056%=      5-min Rain = 0
KWT1 050724Z 22008KT 10/01 A2997 RMK A01 T00960014  RH  056%=      5-min Rain = 0
KWT1 050725Z 22007KT 10/01 A2997 RMK A01 T00970014  RH  056%=      5-min Rain = 0
KWT1 050726Z 22008KT 10/01 A2997 RMK A01 T00980014  RH  056%=      5-min Rain = 0
KWT1 050727Z 22008KT 10/01 A2997 RMK A01 T00990014  RH  056%=      5-min Rain = 0
KWT1 050728Z 22009KT 10/02 A2997 RMK A01 T00990015  RH  056%=      5-min Rain = 0
KWT1 050729Z 22009KT 10/02 A2997 RMK A01 T01000015  RH  055%=      5-min Rain = 0
KWT1 050730Z 22009KT 10/02 A2997 RMK A01 T01010015  RH  055%=      5-min Rain = 0
KWT1 050731Z 22009KT 10/02 A2997 RMK A01 T01020015  RH  055%=      5-min Rain = 0
KWT1 050732Z 22009KT 10/02 A2997 RMK A01 T01030016  RH  055%=      5-min Rain = 0
KWT1 050733Z 21009KT 10/02 A2997 RMK A01 T01030016  RH  055%=      5-min Rain = 0
KWT1 050734Z 22010KT 10/02 A2997 RMK A01 T01040016  RH  055%=      5-min Rain = 0
KWT1 050735Z 22009KT 11/02 A2997 RMK A01 T01050017  RH  055%=      5-min Rain = 0
KWT1 050736Z 22010KT 11/02 A2997 RMK A01 T01050017  RH  054%=      5-min Rain = 0
KWT1 050737Z 22009KT 11/02 A2997 RMK A01 T01060017  RH  054%=      5-min Rain = 0
KWT1 050738Z 22009KT 11/02 A2997 RMK A01 T01050017  RH  054%=      5-min Rain = 0
KWT1 050739Z 21009KT 11/02 A2997 RMK A01 T01060017  RH  054%=      5-min Rain = 0
KWT1 050740Z 21009KT 11/02 A2997 RMK A01 T01060017  RH  054%=      5-min Rain = 0
KWT1 050741Z 22009KT 11/02 A2997 RMK A01 T01060017  RH  054%=      5-min Rain = 0
KWT1 050742Z 22010KT 11/02 A2997 RMK A01 T01060017  RH  054%=      5-min Rain = 0
KWT1 050743Z 22009KT 11/02 A2997 RMK A01 T01070018  RH  054%=      5-min Rain = 0
KWT1 050744Z 22009KT 11/02 A2997 RMK A01 T01070017  RH  054%=      5-min Rain = 0
KWT1 050745Z 22009KT 11/02 A2997 RMK A01 T01070018  RH  054%=      5-min Rain = 0
KWT1 050746Z 22009KT 11/02 A2997 RMK A01 T01070018  RH  054%=      5-min Rain = 0
KWT1 050747Z 22009KT 11/02 A2997 RMK A01 T01070017  RH  054%=      5-min Rain = 0
KWT1 050748Z 22008KT 11/02 A2997 RMK A01 T01070017  RH  054%=      5-min Rain = 0
KWT1 050749Z 22008KT 11/02 A2997 RMK A01 T01070017  RH  054%=      5-min Rain = 0
KWT1 050750Z 22008KT 11/02 A2997 RMK A01 T01070017  RH  054%=      5-min Rain = 0
KWT1 050751Z 22008KT 11/02 A2997 RMK A01 T01060017  RH  054%=      5-min Rain = 0
KWT1 050752Z 22009KT 11/02 A2997 RMK A01 T01060017  RH  054%=      5-min Rain = 0
KWT1 050753Z 22009KT 11/02 A2997 RMK A01 T01050017  RH  054%=      5-min Rain = 0
KWT1 050754Z 22009KT 11/02 A2997 RMK A01 T01050017  RH  055%=      5-min Rain = 0
KWT1 050755Z 22009KT 11/02 A2996 RMK A01 T01050017  RH  055%=      5-min Rain = 0
KWT1 050756Z 22009KT 11/02 A2996 RMK A01 T01050018  RH  055%=      5-min Rain = 0
KWT1 050757Z 22009KT 10/02 A2996 RMK A01 T01040017  RH  055%=      5-min Rain = 0
KWT1 050758Z 22009KT 10/02 A2996 RMK A01 T01040017  RH  055%=      5-min Rain = 0
KWT1 050759Z 22009KT 10/02 A2996 RMK A01 T01040018  RH  055%=      5-min Rain = 0
KWT1 050800Z 22009KT 10/02 A2996 RMK A01 T01040017  RH  055%=      5-min Rain = 0
KWT1 050801Z 22009KT 10/02 A2996 RMK A01 T01040018  RH  055%=      5-min Rain = 0
KWT1 050802Z 22009KT 10/02 A2996 RMK A01 T01030017  RH  055%=      5-min Rain = 0
KWT1 050803Z 22009KT 10/02 A2996 RMK A01 T01030017  RH  055%=      5-min Rain = 0
KWT1 050804Z 22008KT 10/02 A2996 RMK A01 T01030017  RH  055%=      5-min Rain = 0
KWT1 050805Z 22008KT 10/02 A2996 RMK A01 T01040017  RH  055%=      5-min Rain = 0
KWT1 050806Z 22008KT 10/02 A2996 RMK A01 T01040017  RH  055%=      5-min Rain = 0
KWT1 050807Z 22008KT 10/02 A2996 RMK A01 T01040017  RH  055%=      5-min Rain = 0
KWT1 050808Z 22008KT 10/02 A2996 RMK A01 T01030017  RH  055%=      5-min Rain = 0
KWT1 050809Z 22008KT 10/02 A2996 RMK A01 T01030016  RH  055%=      5-min Rain = 0
KWT1 050810Z 22007KT 10/02 A2996 RMK A01 T01030017  RH  055%=      5-min Rain = 0
KWT1 050811Z 22007KT 10/02 A2996 RMK A01 T01020017  RH  055%=      5-min Rain = 0
KWT1 050812Z 22007KT 10/02 A2996 RMK A01 T01020016  RH  055%=      5-min Rain = 0
KWT1 050813Z 22007KT 10/02 A2996 RMK A01 T01010017  RH  056%=      5-min Rain = 0
KWT1 050814Z 22007KT 10/02 A2996 RMK A01 T01010016  RH  056%=      5-min Rain = 0
KWT1 050815Z 22008KT 10/02 A2996 RMK A01 T01000017  RH  056%=      5-min Rain = 0
KWT1 050816Z 22007KT 10/02 A2996 RMK A01 T01000017  RH  056%=      5-min Rain = 0
KWT1 050817Z 22008KT 10/02 A2996 RMK A01 T01000017  RH  056%=      5-min Rain = 0
KWT1 050818Z 22007KT 10/02 A2996 RMK A01 T01000016  RH  056%=      5-min Rain = 0
KWT1 050819Z 22007KT 10/02 A2996 RMK A01 T01000017  RH  056%=      5-min Rain = 0
KWT1 050820Z 23007KT 10/02 A2996 RMK A01 T01000016  RH  056%=      5-min Rain = 0
KWT1 050821Z 23007KT 10/02 A2996 RMK A01 T01000017  RH  056%=      5-min Rain = 0
KWT1 050822Z 23007KT 10/02 A2996 RMK A01 T01010017  RH  056%=      5-min Rain = 0
KWT1 050823Z 23007KT 10/02 A2997 RMK A01 T01010017  RH  056%=      5-min Rain = 0
KWT1 050824Z 23007KT 10/02 A2997 RMK A01 T01000016  RH  056%=      5-min Rain = 0
KWT1 050825Z 23007KT 10/02 A2997 RMK A01 T00990017  RH  056%=      5-min Rain = 0
KWT1 050826Z 22007KT 10/02 A2997 RMK A01 T00990016  RH  057%=      5-min Rain = 0
KWT1 050827Z 22008KT 10/02 A2997 RMK A01 T00980016  RH  057%=      5-min Rain = 0
KWT1 050828Z 22008KT 10/02 A2997 RMK A01 T00980016  RH  057%=      5-min Rain = 0
KWT1 050829Z 22008KT 10/02 A2997 RMK A01 T00980016  RH  057%=      5-min Rain = 0
KWT1 050830Z 22008KT 10/02 A2997 RMK A01 T00970016  RH  057%=      5-min Rain = 0
KWT1 050831Z 22008KT 10/02 A2997 RMK A01 T00970016  RH  057%=      5-min Rain = 0
KWT1 050832Z 22008KT 10/02 A2997 RMK A01 T00970016  RH  057%=      5-min Rain = 0
KWT1 050833Z 22008KT 10/02 A2996 RMK A01 T00970016  RH  057%=      5-min Rain = 0
KWT1 050834Z 22008KT 10/02 A2996 RMK A01 T00970016  RH  057%=      5-min Rain = 0
KWT1 050835Z 22008KT 10/02 A2996 RMK A01 T00970016  RH  057%=      5-min Rain = 0
KWT1 050836Z 22009KT 10/02 A2996 RMK A01 T00960016  RH  057%=      5-min Rain = 0
KWT1 050837Z 22009KT 10/02 A2996 RMK A01 T00960016  RH  058%=      5-min Rain = 0
KWT1 050838Z 22010KT 10/02 A2996 RMK A01 T00950016  RH  058%=      5-min Rain = 0
KWT1 050839Z 22009KT 10/02 A2996 RMK A01 T00950016  RH  058%=      5-min Rain = 0
KWT1 050840Z 22010KT 10/02 A2996 RMK A01 T00950016  RH  058%=      5-min Rain = 0
KWT1 050841Z 22010KT 09/02 A2996 RMK A01 T00940017  RH  058%=      5-min Rain = 0
KWT1 050842Z 22010KT 09/02 A2997 RMK A01 T00940016  RH  058%=      5-min Rain = 0
KWT1 050843Z 22010KT 09/02 A2997 RMK A01 T00940016  RH  058%=      5-min Rain = 0
KWT1 050844Z 22009KT 09/02 A2997 RMK A01 T00940016  RH  058%=      5-min Rain = 0
KWT1 050845Z 22009KT 09/02 A2997 RMK A01 T00940016  RH  058%=      5-min Rain = 0
KWT1 050846Z 22009KT 09/02 A2997 RMK A01 T00940016  RH  058%=      5-min Rain = 0
KWT1 050847Z 22009KT 09/02 A2997 RMK A01 T00940016  RH  058%=      5-min Rain = 0
KWT1 050848Z 22009KT 09/02 A2997 RMK A01 T00940016  RH  058%=      5-min Rain = 0
KWT1 050849Z 22008KT 09/02 A2997 RMK A01 T00940016  RH  058%=      5-min Rain = 0
KWT1 050850Z 22008KT 09/02 A2997 RMK A01 T00940016  RH  058%=      5-min Rain = 0
KWT1 050851Z 22008KT 09/02 A2997 RMK A01 T00940016  RH  058%=      5-min Rain = 0
KWT1 050852Z 22007KT 09/02 A2997 RMK A01 T00940016  RH  058%=      5-min Rain = 0
KWT1 050853Z 22007KT 09/02 A2997 RMK A01 T00940016  RH  058%=      5-min Rain = 0
KWT1 050854Z 22007KT 09/02 A2997 RMK A01 T00940016  RH  058%=      5-min Rain = 0
KWT1 050855Z 22007KT 09/02 A2997 RMK A01 T00940016  RH  058%=      5-min Rain = 0
KWT1 050856Z 22007KT 09/02 A2997 RMK A01 T00940016  RH  058%=      5-min Rain = 0
KWT1 050857Z 22007KT 09/02 A2997 RMK A01 T00940016  RH  058%=      5-min Rain = 0
KWT1 050858Z 22007KT 09/02 A2997 RMK A01 T00930016  RH  058%=      5-min Rain = 0
KWT1 050859Z 22006KT 09/02 A2997 RMK A01 T00930015  RH  058%=      5-min Rain = 0
KWT1 050900Z 22006KT 09/02 A2997 RMK A01 T00930015  RH  058%=      5-min Rain = 0
KWT1 050901Z 22006KT 09/02 A2997 RMK A01 T00930015  RH  058%=      5-min Rain = 0
KWT1 050902Z 22006KT 09/02 A2997 RMK A01 T00920015  RH  058%=      5-min Rain = 0
KWT1 050903Z 22006KT 09/02 A2997 RMK A01 T00910015  RH  059%=      5-min Rain = 0
KWT1 050904Z 22005KT 09/02 A2997 RMK A01 T00910015  RH  059%=      5-min Rain = 0
KWT1 050905Z 22005KT 09/02 A2997 RMK A01 T00900015  RH  059%=      5-min Rain = 0
KWT1 050906Z 22005KT 09/02 A2997 RMK A01 T00900015  RH  059%=      5-min Rain = 0
KWT1 050907Z 22005KT 09/02 A2997 RMK A01 T00890015  RH  060%=      5-min Rain = 0
KWT1 050908Z 22005KT 09/01 A2997 RMK A01 T00880014  RH  060%=      5-min Rain = 0
KWT1 050909Z 22005KT 09/01 A2997 RMK A01 T00870014  RH  060%=      5-min Rain = 0
KWT1 050910Z 22006KT 09/01 A2997 RMK A01 T00870014  RH  060%=      5-min Rain = 0
KWT1 050911Z 22006KT 09/02 A2997 RMK A01 T00870015  RH  060%=      5-min Rain = 0
KWT1 050912Z 22006KT 09/01 A2997 RMK A01 T00860014  RH  061%=      5-min Rain = 0
KWT1 050913Z 22006KT 09/01 A2997 RMK A01 T00860014  RH  061%=      5-min Rain = 0
KWT1 050914Z 22006KT 09/01 A2997 RMK A01 T00860014  RH  061%=      5-min Rain = 0
KWT1 050915Z 22006KT 09/01 A2997 RMK A01 T00850014  RH  061%=      5-min Rain = 0
KWT1 050916Z 22006KT 09/01 A2997 RMK A01 T00850014  RH  061%=      5-min Rain = 0
KWT1 050917Z 22007KT 08/01 A2997 RMK A01 T00840014  RH  061%=      5-min Rain = 0
KWT1 050918Z 22007KT 08/01 A2997 RMK A01 T00840014  RH  062%=      5-min Rain = 0
KWT1 050919Z 22006KT 08/01 A2997 RMK A01 T00840014  RH  062%=      5-min Rain = 0
KWT1 050920Z 22007KT 08/01 A2997 RMK A01 T00830014  RH  062%=      5-min Rain = 0
KWT1 050921Z 22007KT 08/01 A2997 RMK A01 T00830014  RH  062%=      5-min Rain = 0
KWT1 050922Z 22007KT 08/01 A2997 RMK A01 T00820014  RH  062%=      5-min Rain = 0
KWT1 050923Z 23007KT 08/01 A2997 RMK A01 T00810014  RH  062%=      5-min Rain = 0
KWT1 050924Z 23008KT 08/01 A2997 RMK A01 T00810014  RH  063%=      5-min Rain = 0
KWT1 050925Z 23007KT 08/01 A2997 RMK A01 T00820014  RH  062%=      5-min Rain = 0
KWT1 050926Z 23008KT 08/01 A2997 RMK A01 T00820014  RH  062%=      5-min Rain = 0
KWT1 050927Z 23007KT 08/01 A2997 RMK A01 T00810014  RH  062%=      5-min Rain = 0
KWT1 050928Z 23008KT 08/01 A2997 RMK A01 T00820014  RH  062%=      5-min Rain = 0
KWT1 050929Z 23008KT 08/01 A2997 RMK A01 T00810014  RH  063%=      5-min Rain = 0
KWT1 050930Z 23009KT 08/01 A2997 RMK A01 T00810014  RH  063%=      5-min Rain = 0
KWT1 050931Z 23008KT 08/01 A2996 RMK A01 T00810014  RH  063%=      5-min Rain = 0
KWT1 050932Z 23009KT 08/01 A2996 RMK A01 T00800014  RH  063%=      5-min Rain = 0
KWT1 050933Z 23009KT 08/02 A2996 RMK A01 T00810015  RH  063%=      5-min Rain = 0
KWT1 050934Z 23009KT 08/02 A2996 RMK A01 T00810015  RH  063%=      5-min Rain = 0
KWT1 050935Z 23008KT 08/02 A2996 RMK A01 T00820015  RH  063%=      5-min Rain = 0
KWT1 050936Z 23008KT 08/02 A2996 RMK A01 T00830016  RH  062%=      5-min Rain = 0
KWT1 050937Z 23008KT 08/02 A2996 RMK A01 T00830015  RH  062%=      5-min Rain = 0
KWT1 050938Z 23008KT 08/02 A2996 RMK A01 T00840016  RH  062%=      5-min Rain = 0
KWT1 050939Z 23008KT 08/02 A2996 RMK A01 T00830016  RH  062%=      5-min Rain = 0
KWT1 050940Z 23008KT 08/02 A2996 RMK A01 T00840016  RH  062%=      5-min Rain = 0
KWT1 050941Z 22008KT 08/02 A2996 RMK A01 T00830016  RH  062%=      5-min Rain = 0
KWT1 050942Z 23008KT 08/02 A2996 RMK A01 T00830016  RH  063%=      5-min Rain = 0
KWT1 050943Z 22009KT 08/02 A2996 RMK A01 T00830016  RH  063%=      5-min Rain = 0
KWT1 050944Z 22009KT 08/02 A2996 RMK A01 T00830016  RH  063%=      5-min Rain = 0
KWT1 050945Z 22009KT 08/02 A2996 RMK A01 T00840017  RH  063%=      5-min Rain = 0
KWT1 050946Z 23008KT 08/02 A2996 RMK A01 T00840017  RH  063%=      5-min Rain = 0
KWT1 050947Z 23008KT 08/02 A2996 RMK A01 T00830016  RH  063%=      5-min Rain = 0
KWT1 050948Z 23008KT 08/02 A2996 RMK A01 T00840017  RH  063%=      5-min Rain = 0
KWT1 050949Z 23008KT 08/02 A2996 RMK A01 T00840017  RH  063%=      5-min Rain = 0
KWT1 050950Z 23008KT 08/02 A2996 RMK A01 T00840017  RH  063%=      5-min Rain = 0
KWT1 050951Z 23008KT 08/02 A2996 RMK A01 T00840017  RH  063%=      5-min Rain = 0
KWT1 050952Z 23008KT 08/02 A2996 RMK A01 T00840017  RH  063%=      5-min Rain = 0
KWT1 050953Z 23008KT 08/02 A2996 RMK A01 T00840017  RH  063%=      5-min Rain = 0
KWT1 050954Z 23007KT 08/02 A2996 RMK A01 T00840017  RH  063%=      5-min Rain = 0
KWT1 050955Z 23007KT 08/02 A2996 RMK A01 T00840017  RH  062%=      5-min Rain = 0
KWT1 050956Z 23007KT 09/02 A2996 RMK A01 T00850017  RH  062%=      5-min Rain = 0
KWT1 050957Z 23007KT 08/02 A2996 RMK A01 T00840017  RH  062%=      5-min Rain = 0
KWT1 050958Z 22007KT 08/02 A2996 RMK A01 T00840017  RH  063%=      5-min Rain = 0
KWT1 050959Z 22007KT 08/02 A2995 RMK A01 T00840017  RH  063%=      5-min Rain = 0
KWT1 051000Z 22007KT 08/02 A2995 RMK A01 T00840017  RH  063%=      5-min Rain = 0
KWT1 051001Z 22007KT 09/02 A2995 RMK A01 T00850017  RH  062%=      5-min Rain = 0
KWT1 051002Z 23007KT 09/02 A2995 RMK A01 T00850017  RH  062%=      5-min Rain = 0
KWT1 051003Z 22007KT 09/02 A2995 RMK A01 T00850017  RH  062%=      5-min Rain = 0
KWT1 051004Z 22007KT 08/02 A2995 RMK A01 T00840017  RH  063%=      5-min Rain = 0
KWT1 051005Z 22007KT 08/02 A2995 RMK A01 T00830017  RH  063%=      5-min Rain = 0
KWT1 051006Z 21007KT 08/02 A2995 RMK A01 T00820017  RH  063%=      5-min Rain = 0
KWT1 051007Z 21007KT 08/02 A2995 RMK A01 T00800017  RH  064%=      5-min Rain = 0
KWT1 051008Z 21008KT 08/02 A2995 RMK A01 T00790017  RH  065%=      5-min Rain = 0
KWT1 051009Z 22008KT 08/02 A2995 RMK A01 T00770017  RH  066%=      5-min Rain = 0
KWT1 051010Z 22008KT 08/02 A2995 RMK A01 T00770018  RH  066%=      5-min Rain = 0
KWT1 051011Z 22008KT 08/02 A2995 RMK A01 T00760017  RH  066%=      5-min Rain = 0
KWT1 051012Z 22008KT 08/02 A2995 RMK A01 T00760018  RH  066%=      5-min Rain = 0
KWT1 051013Z 21008KT 08/02 A2995 RMK A01 T00760018  RH  067%=      5-min Rain = 0
KWT1 051014Z 22009KT 08/02 A2995 RMK A01 T00760018  RH  067%=      5-min Rain = 0
KWT1 051015Z 22009KT 08/02 A2995 RMK A01 T00760018  RH  066%=      5-min Rain = 0
KWT1 051016Z 22009KT 08/02 A2995 RMK A01 T00770018  RH  066%=      5-min Rain = 0
KWT1 051017Z 22009KT 08/02 A2995 RMK A01 T00780018  RH  066%=      5-min Rain = 0
KWT1 051018Z 22009KT 08/02 A2995 RMK A01 T00780018  RH  066%=      5-min Rain = 0
KWT1 051019Z 22009KT 08/02 A2995 RMK A01 T00780018  RH  066%=      5-min Rain = 0
KWT1 051020Z 22009KT 08/02 A2995 RMK A01 T00790018  RH  065%=      5-min Rain = 0
KWT1 051021Z 22009KT 08/02 A2995 RMK A01 T00790018  RH  065%=      5-min Rain = 0
KWT1 051022Z 22009KT 08/02 A2995 RMK A01 T00790018  RH  065%=      5-min Rain = 0
KWT1 051023Z 23009KT 08/02 A2995 RMK A01 T00790018  RH  065%=      5-min Rain = 0
KWT1 051024Z 22009KT 08/02 A2995 RMK A01 T00800018  RH  065%=      5-min Rain = 0
KWT1 051025Z 22009KT 08/02 A2995 RMK A01 T00820019  RH  065%=      5-min Rain = 0
KWT1 051026Z 22009KT 08/02 A2995 RMK A01 T00820019  RH  064%=      5-min Rain = 0
KWT1 051027Z 22008KT 08/02 A2995 RMK A01 T00830019  RH  064%=      5-min Rain = 0
KWT1 051028Z 22009KT 08/02 A2995 RMK A01 T00820019  RH  064%=      5-min Rain = 0
KWT1 051029Z 22008KT 08/02 A2995 RMK A01 T00810018  RH  064%=      5-min Rain = 0
KWT1 051030Z 22009KT 08/02 A2995 RMK A01 T00810018  RH  065%=      5-min Rain = 0
KWT1 051031Z 22009KT 08/02 A2995 RMK A01 T00810019  RH  065%=      5-min Rain = 0
KWT1 051032Z 22009KT 08/02 A2995 RMK A01 T00800018  RH  065%=      5-min Rain = 0
KWT1 051033Z 22009KT 08/02 A2995 RMK A01 T00800018  RH  065%=      5-min Rain = 0
KWT1 051034Z 23009KT 08/02 A2995 RMK A01 T00810018  RH  065%=      5-min Rain = 0
KWT1 051035Z 23009KT 08/02 A2995 RMK A01 T00820018  RH  064%=      5-min Rain = 0
KWT1 051036Z 22009KT 08/02 A2995 RMK A01 T00820018  RH  064%=      5-min Rain = 0
KWT1 051037Z 22008KT 08/02 A2995 RMK A01 T00820018  RH  064%=      5-min Rain = 0
KWT1 051038Z 22009KT 08/02 A2995 RMK A01 T00820018  RH  064%=      5-min Rain = 0
KWT1 051039Z 22009KT 08/02 A2995 RMK A01 T00820017  RH  064%=      5-min Rain = 0
KWT1 051040Z 22009KT 08/02 A2995 RMK A01 T00810017  RH  064%=      5-min Rain = 0
KWT1 051041Z 23009KT 08/02 A2995 RMK A01 T00800017  RH  064%=      5-min Rain = 0
KWT1 051042Z 22009KT 08/02 A2995 RMK A01 T00800018  RH  065%=      5-min Rain = 0
KWT1 051043Z 23009KT 08/02 A2995 RMK A01 T00800017  RH  064%=      5-min Rain = 0
KWT1 051044Z 23009KT 08/02 A2995 RMK A01 T00810018  RH  064%=      5-min Rain = 0
KWT1 051045Z 23009KT 08/02 A2995 RMK A01 T00810017  RH  064%=      5-min Rain = 0
KWT1 051046Z 23010KT 08/02 A2995 RMK A01 T00820018  RH  064%=      5-min Rain = 0
KWT1 051047Z 23010KT 08/02 A2995 RMK A01 T00830018  RH  064%=      5-min Rain = 0
KWT1 051048Z 23009KT 08/02 A2995 RMK A01 T00830018  RH  063%=      5-min Rain = 0
KWT1 051049Z 23009KT 08/02 A2995 RMK A01 T00840018  RH  063%=      5-min Rain = 0
KWT1 051050Z 23009KT 08/02 A2995 RMK A01 T00840017  RH  063%=      5-min Rain = 0
KWT1 051051Z 23009KT 08/02 A2995 RMK A01 T00840018  RH  063%=      5-min Rain = 0
KWT1 051052Z 23009KT 08/02 A2995 RMK A01 T00840018  RH  063%=      5-min Rain = 0
KWT1 051053Z 23009KT 08/02 A2995 RMK A01 T00830018  RH  063%=      5-min Rain = 0
KWT1 051054Z 23009KT 08/02 A2995 RMK A01 T00830017  RH  064%=      5-min Rain = 0
KWT1 051055Z 23009KT 08/02 A2995 RMK A01 T00830018  RH  064%=      5-min Rain = 0
KWT1 051056Z 23009KT 08/02 A2995 RMK A01 T00820018  RH  064%=      5-min Rain = 0
KWT1 051057Z 23009KT 08/02 A2995 RMK A01 T00820018  RH  064%=      5-min Rain = 0
KWT1 051058Z 23009KT 08/02 A2995 RMK A01 T00820017  RH  064%=      5-min Rain = 0
KWT1 051059Z 23009KT 08/02 A2995 RMK A01 T00820018  RH  064%=      5-min Rain = 0
KWT1 051100Z 23009KT 08/02 A2995 RMK A01 T00820017  RH  064%=      5-min Rain = 0
KWT1 051101Z 23008KT 08/02 A2995 RMK A01 T00820017  RH  064%=      5-min Rain = 0
KWT1 051102Z 23009KT 08/02 A2995 RMK A01 T00830018  RH  064%=      5-min Rain = 0
KWT1 051103Z 23008KT 08/02 A2995 RMK A01 T00820018  RH  064%=      5-min Rain = 0
KWT1 051104Z 23009KT 08/02 A2995 RMK A01 T00820018  RH  064%=      5-min Rain = 0
KWT1 051105Z 23009KT 08/02 A2995 RMK A01 T00810017  RH  064%=      5-min Rain = 0
KWT1 051106Z 23008KT 08/02 A2995 RMK A01 T00810017  RH  064%=      5-min Rain = 0
KWT1 051107Z 23008KT 08/02 A2995 RMK A01 T00810017  RH  064%=      5-min Rain = 0
KWT1 051108Z 23009KT 08/02 A2995 RMK A01 T00810018  RH  064%=      5-min Rain = 0
KWT1 051109Z 23009KT 08/02 A2995 RMK A01 T00810018  RH  064%=      5-min Rain = 0
KWT1 051110Z 23009KT 08/02 A2995 RMK A01 T00810018  RH  064%=      5-min Rain = 0
KWT1 051111Z 23008KT 08/02 A2995 RMK A01 T00810017  RH  064%=      5-min Rain = 0
KWT1 051112Z 23008KT 08/02 A2995 RMK A01 T00820017  RH  064%=      5-min Rain = 0
KWT1 051113Z 23008KT 08/02 A2995 RMK A01 T00810018  RH  064%=      5-min Rain = 0
KWT1 051114Z 23009KT 08/02 A2995 RMK A01 T00810018  RH  064%=      5-min Rain = 0
KWT1 051115Z 23009KT 08/02 A2995 RMK A01 T00810018  RH  064%=      5-min Rain = 0
KWT1 051116Z 23009KT 08/02 A2995 RMK A01 T00800017  RH  065%=      5-min Rain = 0
KWT1 051117Z 23009KT 08/02 A2995 RMK A01 T00800018  RH  065%=      5-min Rain = 0
KWT1 051118Z 23008KT 08/02 A2995 RMK A01 T00800017  RH  065%=      5-min Rain = 0
KWT1 051119Z 23008KT 08/02 A2995 RMK A01 T00800017  RH  065%=      5-min Rain = 0
KWT1 051120Z 22008KT 08/02 A2995 RMK A01 T00790017  RH  065%=      5-min Rain = 0
KWT1 051121Z 22008KT 08/02 A2995 RMK A01 T00800018  RH  065%=      5-min Rain = 0
KWT1 051122Z 22008KT 08/02 A2995 RMK A01 T00790017  RH  065%=      5-min Rain = 0
KWT1 051123Z 22008KT 08/02 A2994 RMK A01 T00790018  RH  065%=      5-min Rain = 0
KWT1 051124Z 22008KT 08/02 A2994 RMK A01 T00780018  RH  065%=      5-min Rain = 0
KWT1 051125Z 22008KT 08/02 A2994 RMK A01 T00780018  RH  066%=      5-min Rain = 0
KWT1 051126Z 22008KT 08/02 A2994 RMK A01 T00770018  RH  066%=      5-min Rain = 0
KWT1 051127Z 22008KT 08/02 A2994 RMK A01 T00760017  RH  066%=      5-min Rain = 0
KWT1 051128Z 22008KT 08/02 A2994 RMK A01 T00760017  RH  066%=      5-min Rain = 0
KWT1 051129Z 22008KT 08/02 A2994 RMK A01 T00760017  RH  066%=      5-min Rain = 0
KWT1 051130Z 22008KT 08/02 A2994 RMK A01 T00770018  RH  066%=      5-min Rain = 0
KWT1 051131Z 22008KT 08/02 A2994 RMK A01 T00770017  RH  066%=      5-min Rain = 0
KWT1 051132Z 22009KT 08/02 A2994 RMK A01 T00770017  RH  066%=      5-min Rain = 0
KWT1 051133Z 22009KT 08/02 A2995 RMK A01 T00770017  RH  066%=      5-min Rain = 0
KWT1 051134Z 22009KT 08/02 A2995 RMK A01 T00770017  RH  066%=      5-min Rain = 0
KWT1 051135Z 22009KT 08/02 A2995 RMK A01 T00770017  RH  066%=      5-min Rain = 0
KWT1 051136Z 23009KT 08/02 A2994 RMK A01 T00790017  RH  065%=      5-min Rain = 0
KWT1 051137Z 23009KT 08/02 A2994 RMK A01 T00790017  RH  065%=      5-min Rain = 0
KWT1 051138Z 23009KT 08/02 A2994 RMK A01 T00800017  RH  065%=      5-min Rain = 0
KWT1 051139Z 22009KT 08/02 A2994 RMK A01 T00800017  RH  064%=      5-min Rain = 0
KWT1 051140Z 22009KT 08/02 A2994 RMK A01 T00810017  RH  064%=      5-min Rain = 0
KWT1 051141Z 22009KT 08/02 A2994 RMK A01 T00810017  RH  064%=      5-min Rain = 0
KWT1 051142Z 21009KT 08/02 A2994 RMK A01 T00790017  RH  065%=      5-min Rain = 0
KWT1 051143Z 21009KT 08/02 A2994 RMK A01 T00790017  RH  065%=      5-min Rain = 0
KWT1 051144Z 21009KT 08/02 A2994 RMK A01 T00770017  RH  066%=      5-min Rain = 0
KWT1 051145Z 21010KT 08/02 A2994 RMK A01 T00760017  RH  066%=      5-min Rain = 0
KWT1 051146Z 21009KT 08/02 A2994 RMK A01 T00760018  RH  066%=      5-min Rain = 0
KWT1 051147Z 22009KT 08/02 A2994 RMK A01 T00760018  RH  067%=      5-min Rain = 0
KWT1 051148Z 22009KT 08/02 A2994 RMK A01 T00760018  RH  066%=      5-min Rain = 0
KWT1 051149Z 22009KT 08/02 A2994 RMK A01 T00770018  RH  066%=      5-min Rain = 0
KWT1 051150Z 22009KT 08/02 A2994 RMK A01 T00780018  RH  066%=      5-min Rain = 0
KWT1 051151Z 22009KT 08/02 A2995 RMK A01 T00780018  RH  066%=      5-min Rain = 0
KWT1 051152Z 22008KT 08/02 A2995 RMK A01 T00780018  RH  066%=      5-min Rain = 0
KWT1 051153Z 22008KT 08/02 A2994 RMK A01 T00790018  RH  065%=      5-min Rain = 0
KWT1 051154Z 22008KT 08/02 A2994 RMK A01 T00790018  RH  065%=      5-min Rain = 0
KWT1 051155Z 22008KT 08/02 A2994 RMK A01 T00790018  RH  065%=      5-min Rain = 0
KWT1 051156Z 21008KT 08/02 A2994 RMK A01 T00780018  RH  066%=      5-min Rain = 0
KWT1 051157Z 22008KT 08/02 A2995 RMK A01 T00770018  RH  066%=      5-min Rain = 0
KWT1 051158Z 21008KT 08/02 A2995 RMK A01 T00770018  RH  066%=      5-min Rain = 0
KWT1 051159Z 21008KT 08/02 A2994 RMK A01 T00770018  RH  066%=      5-min Rain = 0
KWT1 051200Z 21008KT 08/02 A2994 RMK A01 T00760018  RH  067%=      5-min Rain = 0
KWT1 051201Z 21008KT 08/02 A2994 RMK A01 T00760018  RH  067%=      5-min Rain = 0
KWT1 051202Z 21008KT 08/02 A2995 RMK A01 T00750018  RH  067%=      5-min Rain = 0
KWT1 051203Z 21008KT 08/02 A2995 RMK A01 T00750018  RH  067%=      5-min Rain = 0
KWT1 051204Z 21008KT 08/02 A2995 RMK A01 T00750018  RH  067%=      5-min Rain = 0
KWT1 051205Z 21008KT 08/02 A2995 RMK A01 T00750018  RH  067%=      5-min Rain = 0
KWT1 051206Z 21008KT 08/02 A2995 RMK A01 T00750018  RH  067%=      5-min Rain = 0
KWT1 051207Z 21008KT 08/02 A2995 RMK A01 T00760018  RH  067%=      5-min Rain = 0
KWT1 051208Z 21008KT 08/02 A2995 RMK A01 T00760018  RH  067%=      5-min Rain = 0
KWT1 051209Z 21008KT 08/02 A2995 RMK A01 T00770018  RH  067%=      5-min Rain = 0
KWT1 051210Z 21008KT 08/02 A2995 RMK A01 T00770018  RH  066%=      5-min Rain = 0
KWT1 051211Z 21008KT 08/02 A2995 RMK A01 T00770019  RH  066%=      5-min Rain = 0
KWT1 051212Z 21008KT 08/02 A2995 RMK A01 T00770018  RH  066%=      5-min Rain = 0
KWT1 051213Z 21008KT 08/02 A2995 RMK A01 T00780019  RH  066%=      5-min Rain = 0
KWT1 051214Z 21007KT 08/02 A2995 RMK A01 T00780019  RH  066%=      5-min Rain = 0
KWT1 051215Z 21007KT 08/02 A2995 RMK A01 T00780019  RH  066%=      5-min Rain = 0
KWT1 051216Z 21007KT 08/02 A2995 RMK A01 T00780019  RH  066%=      5-min Rain = 0
KWT1 051217Z 21007KT 08/02 A2995 RMK A01 T00780018  RH  066%=      5-min Rain = 0
KWT1 051218Z 20007KT 08/02 A2995 RMK A01 T00780019  RH  066%=      5-min Rain = 0
KWT1 051219Z 21007KT 08/02 A2995 RMK A01 T00770018  RH  066%=      5-min Rain = 0
KWT1 051220Z 20007KT 08/02 A2995 RMK A01 T00770019  RH  067%=      5-min Rain = 0
KWT1 051221Z 21006KT 08/02 A2995 RMK A01 T00770019  RH  067%=      5-min Rain = 0
KWT1 051222Z 21006KT 08/02 A2995 RMK A01 T00760019  RH  067%=      5-min Rain = 0
KWT1 051223Z 20006KT 08/02 A2995 RMK A01 T00760018  RH  067%=      5-min Rain = 0
KWT1 051224Z 20006KT 08/02 A2995 RMK A01 T00750018  RH  067%=      5-min Rain = 0
KWT1 051225Z 20007KT 07/02 A2995 RMK A01 T00740018  RH  067%=      5-min Rain = 0
KWT1 051226Z 20007KT 07/02 A2995 RMK A01 T00740018  RH  068%=      5-min Rain = 0
KWT1 051227Z 20006KT 07/02 A2995 RMK A01 T00730017  RH  068%=      5-min Rain = 0
KWT1 051228Z 20006KT 07/02 A2995 RMK A01 T00720017  RH  068%=      5-min Rain = 0
KWT1 051229Z 20006KT 07/02 A2995 RMK A01 T00710017  RH  068%=      5-min Rain = 0
KWT1 051230Z 20006KT 07/02 A2995 RMK A01 T00710017  RH  069%=      5-min Rain = 0
KWT1 051231Z 20007KT 07/02 A2995 RMK A01 T00700017  RH  069%=      5-min Rain = 0
KWT1 051232Z 21007KT 07/02 A2995 RMK A01 T00690017  RH  069%=      5-min Rain = 0
KWT1 051233Z 21007KT 07/02 A2995 RMK A01 T00690017  RH  069%=      5-min Rain = 0
KWT1 051234Z 21008KT 07/02 A2995 RMK A01 T00690017  RH  070%=      5-min Rain = 0
KWT1 051235Z 21008KT 07/02 A2996 RMK A01 T00690017  RH  069%=      5-min Rain = 0
KWT1 051236Z 21008KT 07/02 A2996 RMK A01 T00690017  RH  069%=      5-min Rain = 0
KWT1 051237Z 21008KT 07/02 A2996 RMK A01 T00700017  RH  069%=      5-min Rain = 0
KWT1 051238Z 21008KT 07/02 A2996 RMK A01 T00720017  RH  068%=      5-min Rain = 0
KWT1 051239Z 21008KT 07/02 A2996 RMK A01 T00720017  RH  068%=      5-min Rain = 0
KWT1 051240Z 20008KT 07/02 A2996 RMK A01 T00720016  RH  068%=      5-min Rain = 0
KWT1 051241Z 20008KT 07/02 A2996 RMK A01 T00720016  RH  068%=      5-min Rain = 0
KWT1 051242Z 20008KT 07/02 A2996 RMK A01 T00720017  RH  068%=      5-min Rain = 0
KWT1 051243Z 20008KT 07/02 A2996 RMK A01 T00710016  RH  068%=      5-min Rain = 0
KWT1 051244Z 20008KT 07/02 A2996 RMK A01 T00710017  RH  068%=      5-min Rain = 0
KWT1 051245Z 21008KT 07/02 A2996 RMK A01 T00710017  RH  069%=      5-min Rain = 0
KWT1 051246Z 21008KT 07/02 A2996 RMK A01 T00700017  RH  069%=      5-min Rain = 0
KWT1 051247Z 21008KT 07/02 A2996 RMK A01 T00700017  RH  069%=      5-min Rain = 0
KWT1 051248Z 21009KT 07/02 A2996 RMK A01 T00700016  RH  069%=      5-min Rain = 0
KWT1 051249Z 21008KT 07/02 A2996 RMK A01 T00710016  RH  068%=      5-min Rain = 0
KWT1 051250Z 21008KT 07/02 A2996 RMK A01 T00710016  RH  068%=      5-min Rain = 0
KWT1 051251Z 21008KT 07/02 A2996 RMK A01 T00710017  RH  068%=      5-min Rain = 0
KWT1 051252Z 21007KT 07/02 A2996 RMK A01 T00710016  RH  068%=      5-min Rain = 0
KWT1 051253Z 21008KT 07/02 A2996 RMK A01 T00710016  RH  068%=      5-min Rain = 0
KWT1 051254Z 21007KT 07/02 A2996 RMK A01 T00720017  RH  068%=      5-min Rain = 0
KWT1 051255Z 21007KT 07/02 A2996 RMK A01 T00730017  RH  068%=      5-min Rain = 0
KWT1 051256Z 21007KT 07/02 A2996 RMK A01 T00730017  RH  068%=      5-min Rain = 0
KWT1 051257Z 21007KT 07/02 A2996 RMK A01 T00730017  RH  067%=      5-min Rain = 0
KWT1 051258Z 21008KT 07/02 A2996 RMK A01 T00730017  RH  067%=      5-min Rain = 0
KWT1 051259Z 21008KT 07/02 A2996 RMK A01 T00740017  RH  067%=      5-min Rain = 0
KWT1 051300Z 21008KT 07/02 A2996 RMK A01 T00740017  RH  067%=      5-min Rain = 0
KWT1 051301Z 21008KT 07/02 A2996 RMK A01 T00740016  RH  066%=      5-min Rain = 0
KWT1 051302Z 21008KT 08/02 A2996 RMK A01 T00750016  RH  066%=      5-min Rain = 0
KWT1 051303Z 21008KT 08/02 A2996 RMK A01 T00750016  RH  066%=      5-min Rain = 0
KWT1 051304Z 21009KT 07/02 A2996 RMK A01 T00740016  RH  066%=      5-min Rain = 0
KWT1 051305Z 21009KT 07/02 A2996 RMK A01 T00740015  RH  067%=      5-min Rain = 0
KWT1 051306Z 21009KT 07/02 A2996 RMK A01 T00730016  RH  067%=      5-min Rain = 0
KWT1 051307Z 21009KT 07/02 A2996 RMK A01 T00730016  RH  067%=      5-min Rain = 0
KWT1 051308Z 21009KT 07/02 A2996 RMK A01 T00720016  RH  067%=      5-min Rain = 0
KWT1 051309Z 21009KT 07/02 A2996 RMK A01 T00720016  RH  067%=      5-min Rain = 0
KWT1 051310Z 21009KT 07/02 A2996 RMK A01 T00720016  RH  067%=      5-min Rain = 0
KWT1 051311Z 21009KT 07/02 A2996 RMK A01 T00720016  RH  067%=      5-min Rain = 0
KWT1 051312Z 21009KT 07/02 A2996 RMK A01 T00730016  RH  067%=      5-min Rain = 0
KWT1 051313Z 21009KT 07/02 A2996 RMK A01 T00730016  RH  067%=      5-min Rain = 0
KWT1 051314Z 21009KT 07/02 A2996 RMK A01 T00730016  RH  067%=      5-min Rain = 0
KWT1 051315Z 21009KT 07/02 A2996 RMK A01 T00730016  RH  067%=      5-min Rain = 0
KWT1 051316Z 21009KT 07/02 A2996 RMK A01 T00720016  RH  067%=      5-min Rain = 0
KWT1 051317Z 21008KT 07/02 A2996 RMK A01 T00720016  RH  068%=      5-min Rain = 0
KWT1 051318Z 21008KT 07/02 A2996 RMK A01 T00720016  RH  068%=      5-min Rain = 0
KWT1 051319Z 21008KT 07/02 A2996 RMK A01 T00710016  RH  068%=      5-min Rain = 0
KWT1 051320Z 21007KT 07/02 A2996 RMK A01 T00710016  RH  068%=      5-min Rain = 0
KWT1 051321Z 22007KT 07/02 A2996 RMK A01 T00710016  RH  068%=      5-min Rain = 0
KWT1 051322Z 22007KT 07/02 A2996 RMK A01 T00700016  RH  068%=      5-min Rain = 0
KWT1 051323Z 22007KT 07/02 A2996 RMK A01 T00700016  RH  069%=      5-min Rain = 0
KWT1 051324Z 22007KT 07/02 A2996 RMK A01 T00700016  RH  069%=      5-min Rain = 0
KWT1 051325Z 22007KT 07/02 A2996 RMK A01 T00700016  RH  069%=      5-min Rain = 0
KWT1 051326Z 22007KT 07/02 A2996 RMK A01 T00690016  RH  069%=      5-min Rain = 0
KWT1 051327Z 22007KT 07/02 A2996 RMK A01 T00690016  RH  069%=      5-min Rain = 0
KWT1 051328Z 22007KT 07/02 A2996 RMK A01 T00690016  RH  069%=      5-min Rain = 0
KWT1 051329Z 22006KT 07/02 A2996 RMK A01 T00680016  RH  069%=      5-min Rain = 0
KWT1 051330Z 22007KT 07/02 A2996 RMK A01 T00680016  RH  069%=      5-min Rain = 0
KWT1 051331Z 22007KT 07/02 A2996 RMK A01 T00680015  RH  069%=      5-min Rain = 0
KWT1 051332Z 22007KT 07/02 A2996 RMK A01 T00680016  RH  069%=      5-min Rain = 0
KWT1 051333Z 23006KT 07/02 A2996 RMK A01 T00670015  RH  069%=      5-min Rain = 0
KWT1 051334Z 23007KT 07/02 A2997 RMK A01 T00670016  RH  070%=      5-min Rain = 0
KWT1 051335Z 23007KT 07/02 A2997 RMK A01 T00670016  RH  070%=      5-min Rain = 0
KWT1 051336Z 23006KT 07/02 A2997 RMK A01 T00670015  RH  070%=      5-min Rain = 0
KWT1 051337Z 23007KT 07/02 A2997 RMK A01 T00670016  RH  070%=      5-min Rain = 0
KWT1 051338Z 23006KT 07/02 A2997 RMK A01 T00660016  RH  070%=      5-min Rain = 0
KWT1 051339Z 22007KT 07/02 A2997 RMK A01 T00670016  RH  070%=      5-min Rain = 0
KWT1 051340Z 22007KT 07/02 A2997 RMK A01 T00680016  RH  070%=      5-min Rain = 0
KWT1 051341Z 22007KT 07/02 A2997 RMK A01 T00680016  RH  070%=      5-min Rain = 0
KWT1 051342Z 22008KT 07/02 A2997 RMK A01 T00680016  RH  069%=      5-min Rain = 0
KWT1 051343Z 22007KT 07/02 A2997 RMK A01 T00690016  RH  069%=      5-min Rain = 0
KWT1 051344Z 22008KT 07/02 A2997 RMK A01 T00700017  RH  069%=      5-min Rain = 0
KWT1 051345Z 22008KT 07/02 A2997 RMK A01 T00720018  RH  068%=      5-min Rain = 0
KWT1 051346Z 22008KT 07/02 A2997 RMK A01 T00740018  RH  068%=      5-min Rain = 0
KWT1 051347Z 21008KT 08/02 A2997 RMK A01 T00760018  RH  067%=      5-min Rain = 0
KWT1 051348Z 21008KT 08/02 A2997 RMK A01 T00770018  RH  066%=      5-min Rain = 0
KWT1 051349Z 21009KT 08/02 A2997 RMK A01 T00780018  RH  066%=      5-min Rain = 0
KWT1 051350Z 21009KT 08/02 A2997 RMK A01 T00780018  RH  066%=      5-min Rain = 0
KWT1 051351Z 21009KT 08/02 A2997 RMK A01 T00780017  RH  066%=      5-min Rain = 0
KWT1 051352Z 21009KT 08/02 A2997 RMK A01 T00780017  RH  065%=      5-min Rain = 0
KWT1 051353Z 21009KT 08/02 A2997 RMK A01 T00780018  RH  066%=      5-min Rain = 0
KWT1 051354Z 21008KT 08/02 A2997 RMK A01 T00770018  RH  066%=      5-min Rain = 0
KWT1 051355Z 21008KT 08/02 A2997 RMK A01 T00780018  RH  066%=      5-min Rain = 0
KWT1 051356Z 21008KT 08/02 A2997 RMK A01 T00780019  RH  066%=      5-min Rain = 0
KWT1 051357Z 21008KT 08/02 A2997 RMK A01 T00790019  RH  065%=      5-min Rain = 0
KWT1 051358Z 20008KT 08/02 A2997 RMK A01 T00800019  RH  065%=      5-min Rain = 0
KWT1 051359Z 20008KT 08/02 A2997 RMK A01 T00810019  RH  065%=      5-min Rain = 0
KWT1 051400Z 21008KT 08/02 A2997 RMK A01 T00810019  RH  065%=      5-min Rain = 0
KWT1 051401Z 21008KT 08/02 A2997 RMK A01 T00820020  RH  065%=      5-min Rain = 0
KWT1 051402Z 21008KT 08/02 A2997 RMK A01 T00830020  RH  064%=      5-min Rain = 0
KWT1 051403Z 21008KT 08/02 A2997 RMK A01 T00840020  RH  064%=      5-min Rain = 0
KWT1 051404Z 21008KT 09/02 A2997 RMK A01 T00850020  RH  064%=      5-min Rain = 0
KWT1 051405Z 21008KT 09/02 A2997 RMK A01 T00860021  RH  063%=      5-min Rain = 0
KWT1 051406Z 21008KT 09/02 A2997 RMK A01 T00870020  RH  063%=      5-min Rain = 0
KWT1 051407Z 21007KT 09/02 A2997 RMK A01 T00880021  RH  063%=      5-min Rain = 0
KWT1 051408Z 21007KT 09/02 A2997 RMK A01 T00880020  RH  062%=      5-min Rain = 0
KWT1 051409Z 21007KT 09/02 A2997 RMK A01 T00900020  RH  062%=      5-min Rain = 0
KWT1 051410Z 20007KT 09/02 A2997 RMK A01 T00900021  RH  062%=      5-min Rain = 0
KWT1 051411Z 21006KT 09/02 A2997 RMK A01 T00910021  RH  062%=      5-min Rain = 0
KWT1 051412Z 21006KT 09/02 A2997 RMK A01 T00910021  RH  061%=      5-min Rain = 0
KWT1 051413Z 21007KT 09/02 A2997 RMK A01 T00910020  RH  061%=      5-min Rain = 0
KWT1 051414Z 21007KT 09/02 A2997 RMK A01 T00920021  RH  061%=      5-min Rain = 0
KWT1 051415Z 21008KT 09/02 A2997 RMK A01 T00920021  RH  061%=      5-min Rain = 0
KWT1 051416Z 21008KT 09/02 A2997 RMK A01 T00920021  RH  061%=      5-min Rain = 0
KWT1 051417Z 21008KT 09/02 A2997 RMK A01 T00930022  RH  061%=      5-min Rain = 0
KWT1 051418Z 21008KT 09/02 A2997 RMK A01 T00930021  RH  061%=      5-min Rain = 0
KWT1 051419Z 21008KT 09/02 A2997 RMK A01 T00930021  RH  061%=      5-min Rain = 0
KWT1 051420Z 21008KT 09/02 A2997 RMK A01 T00930021  RH  061%=      5-min Rain = 0
KWT1 051421Z 21008KT 09/02 A2997 RMK A01 T00920021  RH  061%=      5-min Rain = 0
KWT1 051422Z 21008KT 09/02 A2997 RMK A01 T00920021  RH  061%=      5-min Rain = 0
KWT1 051423Z 22007KT 09/02 A2997 RMK A01 T00910021  RH  061%=      5-min Rain = 0
KWT1 051424Z 22008KT 09/02 A2997 RMK A01 T00910021  RH  062%=      5-min Rain = 0
KWT1 051425Z 22008KT 09/02 A2997 RMK A01 T00900020  RH  062%=      5-min Rain = 0
KWT1 051426Z 22007KT 09/02 A2997 RMK A01 T00900021  RH  062%=      5-min Rain = 0
KWT1 051427Z 21007KT 09/02 A2997 RMK A01 T00900021  RH  062%=      5-min Rain = 0
KWT1 051428Z 21008KT 09/02 A2997 RMK A01 T00890022  RH  063%=      5-min Rain = 0
KWT1 051429Z 21007KT 09/02 A2997 RMK A01 T00890022  RH  063%=      5-min Rain = 0
KWT1 051430Z 21007KT 09/02 A2997 RMK A01 T00880022  RH  063%=      5-min Rain = 0
KWT1 051431Z 21008KT 09/02 A2997 RMK A01 T00880023  RH  063%=      5-min Rain = 0
KWT1 051432Z 21007KT 09/02 A2997 RMK A01 T00880023  RH  063%=      5-min Rain = 0
KWT1 051433Z 21007KT 09/02 A2997 RMK A01 T00880023  RH  064%=      5-min Rain = 0
KWT1 051434Z 21007KT 09/02 A2997 RMK A01 T00880023  RH  064%=      5-min Rain = 0
KWT1 051435Z 20007KT 09/02 A2997 RMK A01 T00880024  RH  064%=      5-min Rain = 0
KWT1 051436Z 21007KT 09/02 A2997 RMK A01 T00880024  RH  064%=      5-min Rain = 0
KWT1 051437Z 21008KT 09/02 A2997 RMK A01 T00880024  RH  064%=      5-min Rain = 0
KWT1 051438Z 21008KT 09/02 A2997 RMK A01 T00880024  RH  064%=      5-min Rain = 0
KWT1 051439Z 21008KT 09/02 A2997 RMK A01 T00890024  RH  064%=      5-min Rain = 0
KWT1 051440Z 21007KT 09/03 A2998 RMK A01 T00900025  RH  064%=      5-min Rain = 0
KWT1 051441Z 21007KT 09/03 A2998 RMK A01 T00900025  RH  064%=      5-min Rain = 0
KWT1 051442Z 22008KT 09/03 A2998 RMK A01 T00920026  RH  063%=      5-min Rain = 0
KWT1 051443Z 21007KT 09/03 A2998 RMK A01 T00930026  RH  063%=      5-min Rain = 0
KWT1 051444Z 21007KT 09/03 A2998 RMK A01 T00940026  RH  063%=      5-min Rain = 0
KWT1 051445Z 21008KT 10/03 A2998 RMK A01 T00960026  RH  062%=      5-min Rain = 0
KWT1 051446Z 21008KT 10/03 A2998 RMK A01 T00970026  RH  061%=      5-min Rain = 0
KWT1 051447Z 21008KT 10/03 A2998 RMK A01 T00990026  RH  061%=      5-min Rain = 0
KWT1 051448Z 21008KT 10/03 A2998 RMK A01 T01000026  RH  060%=      5-min Rain = 0
KWT1 051449Z 21008KT 10/03 A2998 RMK A01 T01010027  RH  060%=      5-min Rain = 0
KWT1 051450Z 21008KT 10/03 A2998 RMK A01 T01020026  RH  059%=      5-min Rain = 0
KWT1 051451Z 20008KT 10/03 A2997 RMK A01 T01030026  RH  059%=      5-min Rain = 0
KWT1 051452Z 21007KT 10/03 A2997 RMK A01 T01030027  RH  059%=      5-min Rain = 0
KWT1 051453Z 20008KT 10/03 A2998 RMK A01 T01040027  RH  059%=      5-min Rain = 0
KWT1 051454Z 20008KT 10/03 A2998 RMK A01 T01040026  RH  058%=      5-min Rain = 0
KWT1 051455Z 20007KT 10/03 A2997 RMK A01 T01040026  RH  058%=      5-min Rain = 0
KWT1 051456Z 21007KT 10/03 A2997 RMK A01 T01040026  RH  059%=      5-min Rain = 0
KWT1 051457Z 21007KT 10/03 A2997 RMK A01 T01030026  RH  059%=      5-min Rain = 0
KWT1 051458Z 20007KT 10/03 A2997 RMK A01 T01040026  RH  059%=      5-min Rain = 0
KWT1 051459Z 21005KT 10/03 A2997 RMK A01 T01030027  RH  059%=      5-min Rain = 0
KWT1 051500Z 21006KT 10/03 A2997 RMK A01 T01030027  RH  059%=      5-min Rain = 0
KWT1 051501Z 20007KT 10/03 A2997 RMK A01 T01030027  RH  059%=      5-min Rain = 0
KWT1 051502Z 20006KT 10/03 A2997 RMK A01 T01030027  RH  059%=      5-min Rain = 0
KWT1 051503Z 20007KT 10/03 A2997 RMK A01 T01030028  RH  059%=      5-min Rain = 0
KWT1 051504Z 20006KT 10/03 A2997 RMK A01 T01030028  RH  059%=      5-min Rain = 0
KWT1 051505Z 20007KT 10/03 A2997 RMK A01 T01030028  RH  059%=      5-min Rain = 0
KWT1 051506Z 20006KT 10/03 A2997 RMK A01 T01040028  RH  059%=      5-min Rain = 0
KWT1 051507Z 20007KT 11/03 A2997 RMK A01 T01050029  RH  059%=      5-min Rain = 0
KWT1 051508Z 19006KT 11/03 A2997 RMK A01 T01060029  RH  059%=      5-min Rain = 0
KWT1 051509Z 21005KT 11/03 A2997 RMK A01 T01070029  RH  059%=      5-min Rain = 0
KWT1 051510Z 20006KT 11/03 A2997 RMK A01 T01080030  RH  059%=      5-min Rain = 0
KWT1 051511Z 20007KT 11/03 A2997 RMK A01 T01090029  RH  058%=      5-min Rain = 0
KWT1 051512Z 20006KT 11/03 A2997 RMK A01 T01090028  RH  057%=      5-min Rain = 0
KWT1 051513Z 20007KT 11/03 A2997 RMK A01 T01110030  RH  057%=      5-min Rain = 0
KWT1 051514Z 20007KT 11/03 A2997 RMK A01 T01110029  RH  057%=      5-min Rain = 0
KWT1 051515Z 21006KT 11/03 A2998 RMK A01 T01120029  RH  056%=      5-min Rain = 0
KWT1 051516Z 20007KT 11/03 A2998 RMK A01 T01130029  RH  056%=      5-min Rain = 0
KWT1 051517Z 21007KT 11/03 A2998 RMK A01 T01140029  RH  056%=      5-min Rain = 0
KWT1 051518Z 21006KT 12/03 A2998 RMK A01 T01150029  RH  056%=      5-min Rain = 0
KWT1 051519Z 20006KT 12/03 A2998 RMK A01 T01160029  RH  055%=      5-min Rain = 0
KWT1 051520Z 21006KT 12/03 A2998 RMK A01 T01170029  RH  055%=      5-min Rain = 0
KWT1 051521Z 21006KT 12/03 A2998 RMK A01 T01180029  RH  055%=      5-min Rain = 0
KWT1 051522Z 21004KT 12/03 A2998 RMK A01 T01180028  RH  054%=      5-min Rain = 0
KWT1 051523Z 21006KT 12/03 A2998 RMK A01 T01200030  RH  054%=      5-min Rain = 0
KWT1 051524Z 21006KT 12/03 A2998 RMK A01 T01210028  RH  053%=      5-min Rain = 0
KWT1 051525Z 21005KT 12/03 A2998 RMK A01 T01210028  RH  053%=      5-min Rain = 0
KWT1 051526Z 21005KT 12/03 A2998 RMK A01 T01230030  RH  053%=      5-min Rain = 0
KWT1 051527Z 21005KT 13/03 A2998 RMK A01 T01250030  RH  053%=      5-min Rain = 0
KWT1 051528Z 21005KT 13/03 A2998 RMK A01 T01250029  RH  052%=      5-min Rain = 0
KWT1 051529Z 21006KT 13/03 A2998 RMK A01 T01250029  RH  052%=      5-min Rain = 0
KWT1 051530Z 21006KT 13/03 A2998 RMK A01 T01260028  RH  051%=      5-min Rain = 0
KWT1 051531Z 21006KT 13/03 A2998 RMK A01 T01250027  RH  051%=      5-min Rain = 0
KWT1 051532Z 20006KT 12/03 A2998 RMK A01 T01240028  RH  052%=      5-min Rain = 0
KWT1 051533Z 20004KT 13/03 A2998 RMK A01 T01250029  RH  052%=      5-min Rain = 0
KWT1 051534Z 21006KT 13/03 A2998 RMK A01 T01270030  RH  052%=      5-min Rain = 0
KWT1 051535Z 22006KT 13/03 A2998 RMK A01 T01290028  RH  050%=      5-min Rain = 0
KWT1 051536Z 24007KT 13/03 A2999 RMK A01 T01300025  RH  049%=      5-min Rain = 0
KWT1 051537Z 23006KT 13/02 A2999 RMK A01 T01300024  RH  049%=      5-min Rain = 0
KWT1 051538Z 22006KT 13/03 A2999 RMK A01 T01300025  RH  049%=      5-min Rain = 0
KWT1 051539Z 22006KT 13/03 A2999 RMK A01 T01310026  RH  049%=      5-min Rain = 0
KWT1 051540Z 22007KT 13/03 A2999 RMK A01 T01320026  RH  049%=      5-min Rain = 0
KWT1 051541Z 24008KT 13/02 A2999 RMK A01 T01320024  RH  048%=      5-min Rain = 0
KWT1 051542Z 23007KT 13/02 A2999 RMK A01 T01310021  RH  047%=      5-min Rain = 0
KWT1 051543Z 22008KT 13/02 A2999 RMK A01 T01290022  RH  048%=      5-min Rain = 0
KWT1 051544Z 22008KT 13/02 A2999 RMK A01 T01290022  RH  048%=      5-min Rain = 0
KWT1 051545Z 21007KT 13/02 A2999 RMK A01 T01280022  RH  048%=      5-min Rain = 0
KWT1 051546Z 20008KT 13/02 A2999 RMK A01 T01290023  RH  048%=      5-min Rain = 0
KWT1 051547Z 21008KT 13/02 A2999 RMK A01 T01290022  RH  048%=      5-min Rain = 0
KWT1 051548Z 21008KT 13/02 A2998 RMK A01 T01300022  RH  048%=      5-min Rain = 0
KWT1 051549Z 22009KT 13/02 A2998 RMK A01 T01300022  RH  048%=      5-min Rain = 0
KWT1 051550Z 22008KT 13/02 A2998 RMK A01 T01290022  RH  048%=      5-min Rain = 0
KWT1 051551Z 21008KT 13/02 A2998 RMK A01 T01290023  RH  048%=      5-min Rain = 0
KWT1 051552Z 22009KT 13/02 A2999 RMK A01 T01280022  RH  049%=      5-min Rain = 0
KWT1 051553Z 21009KT 13/02 A2999 RMK A01 T01270022  RH  049%=      5-min Rain = 0
KWT1 051554Z 22008KT 13/02 A2999 RMK A01 T01270023  RH  049%=      5-min Rain = 0
KWT1 051555Z 22008KT 13/02 A2999 RMK A01 T01270024  RH  050%=      5-min Rain = 0
KWT1 051556Z 22007KT 13/03 A2999 RMK A01 T01270025  RH  050%=      5-min Rain = 0
KWT1 051557Z 22009KT 13/03 A2999 RMK A01 T01280026  RH  050%=      5-min Rain = 0
KWT1 051558Z 22009KT 13/03 A2998 RMK A01 T01280025  RH  050%=      5-min Rain = 0
KWT1 051559Z 22008KT 13/03 A2998 RMK A01 T01270025  RH  050%=      5-min Rain = 0
KWT1 051600Z 22009KT 13/03 A2998 RMK A01 T01280026  RH  050%=      5-min Rain = 0
KWT1 051601Z 22008KT 13/03 A2998 RMK A01 T01280026  RH  050%=      5-min Rain = 0
KWT1 051602Z 22007KT 13/03 A2998 RMK A01 T01290027  RH  050%=      5-min Rain = 0
KWT1 051603Z 21008KT 13/03 A2998 RMK A01 T01300028  RH  050%=      5-min Rain = 0
KWT1 051604Z 21008KT 13/03 A2998 RMK A01 T01300027  RH  049%=      5-min Rain = 0
KWT1 051605Z 22009KT 13/03 A2998 RMK A01 T01310027  RH  049%=      5-min Rain = 0
KWT1 051606Z 22008KT 13/03 A2998 RMK A01 T01310028  RH  050%=      5-min Rain = 0
KWT1 051607Z 20007KT 13/03 A2998 RMK A01 T01320029  RH  050%=      5-min Rain = 0
KWT1 051608Z 21009KT 13/03 A2998 RMK A01 T01340029  RH  049%=      5-min Rain = 0
KWT1 051609Z 21007KT 13/03 A2998 RMK A01 T01340029  RH  049%=      5-min Rain = 0
KWT1 051610Z 21008KT 13/03 A2998 RMK A01 T01340029  RH  049%=      5-min Rain = 0
KWT1 051611Z 21008KT 14/03 A2998 RMK A01 T01350031  RH  049%=      5-min Rain = 0
KWT1 051612Z 21007KT 14/03 A2998 RMK A01 T01360030  RH  049%=      5-min Rain = 0
KWT1 051613Z 22006KT 14/03 A2998 RMK A01 T01370032  RH  049%=      5-min Rain = 0
KWT1 051614Z 22007KT 14/03 A2998 RMK A01 T01400033  RH  048%=      5-min Rain = 0
KWT1 051615Z 22008KT 14/03 A2998 RMK A01 T01410031  RH  047%=      5-min Rain = 0
KWT1 051616Z 22008KT 14/03 A2998 RMK A01 T01400030  RH  047%=      5-min Rain = 0
KWT1 051617Z 23007KT 14/03 A2998 RMK A01 T01400030  RH  047%=      5-min Rain = 0
KWT1 051618Z 22007KT 14/03 A2999 RMK A01 T01430034  RH  048%=      5-min Rain = 0
KWT1 051619Z 22008KT 15/03 A2999 RMK A01 T01450033  RH  047%=      5-min Rain = 0
KWT1 051620Z 21009KT 15/03 A2999 RMK A01 T01460032  RH  046%=      5-min Rain = 0
KWT1 051621Z 22008KT 15/03 A2999 RMK A01 T01460031  RH  046%=      5-min Rain = 0
KWT1 051622Z 22008KT 15/03 A2999 RMK A01 T01470029  RH  045%=      5-min Rain = 0
KWT1 051623Z 21009KT 15/03 A2998 RMK A01 T01460029  RH  045%=      5-min Rain = 0
KWT1 051624Z 21008KT 15/03 A2998 RMK A01 T01450026  RH  045%=      5-min Rain = 0
KWT1 051625Z 23009G14KT 15/03 A2998 RMK A01 T01460028  RH  045%=      5-min Rain = 0
KWT1 051626Z 22011KT 15/03 A2998 RMK A01 T01490026  RH  044%=      5-min Rain = 0
KWT1 051627Z 22010KT 15/02 A2998 RMK A01 T01470024  RH  044%=      5-min Rain = 0
KWT1 051628Z 23010KT 15/03 A2998 RMK A01 T01460025  RH  044%=      5-min Rain = 0
KWT1 051629Z 22010KT 15/03 A2998 RMK A01 T01460025  RH  044%=      5-min Rain = 0
KWT1 051630Z 22010KT 15/03 A2998 RMK A01 T01470026  RH  044%=      5-min Rain = 0
KWT1 051631Z 21009KT 15/03 A2998 RMK A01 T01480028  RH  044%=      5-min Rain = 0
KWT1 051632Z 21009KT 15/03 A2998 RMK A01 T01500028  RH  044%=      5-min Rain = 0
KWT1 051633Z 21010KT 15/03 A2998 RMK A01 T01490027  RH  044%=      5-min Rain = 0
KWT1 051634Z 21009KT 15/03 A2998 RMK A01 T01480027  RH  044%=      5-min Rain = 0
KWT1 051635Z 21007KT 15/03 A2998 RMK A01 T01490027  RH  044%=      5-min Rain = 0
KWT1 051636Z 22009KT 15/03 A2998 RMK A01 T01500028  RH  044%=      5-min Rain = 0
KWT1 051637Z 22009KT 15/03 A2999 RMK A01 T01520029  RH  043%=      5-min Rain = 0
KWT1 051638Z 23007KT 15/03 A2999 RMK A01 T01520028  RH  043%=      5-min Rain = 0
KWT1 051639Z 23010KT 15/03 A2999 RMK A01 T01520028  RH  043%=      5-min Rain = 0
KWT1 051640Z 23009KT 15/03 A2999 RMK A01 T01520028  RH  043%=      5-min Rain = 0
KWT1 051641Z 23008KT 15/03 A2999 RMK A01 T01540030  RH  043%=      5-min Rain = 0
KWT1 051642Z 24008KT 16/03 A2999 RMK A01 T01550029  RH  043%=      5-min Rain = 0
KWT1 051643Z 24009KT 16/03 A2999 RMK A01 T01550029  RH  043%=      5-min Rain = 0
KWT1 051644Z 23009KT 16/03 A2999 RMK A01 T01550029  RH  042%=      5-min Rain = 0
KWT1 051645Z 23008KT 16/03 A2999 RMK A01 T01550028  RH  042%=      5-min Rain = 0
KWT1 051646Z 23007KT 16/03 A2999 RMK A01 T01550028  RH  042%=      5-min Rain = 0
KWT1 051647Z 24008KT 16/03 A2999 RMK A01 T01560029  RH  043%=      5-min Rain = 0
KWT1 051648Z 23009KT 16/03 A2999 RMK A01 T01570030  RH  042%=      5-min Rain = 0
KWT1 051649Z 23009KT 16/03 A2999 RMK A01 T01560029  RH  042%=      5-min Rain = 0
KWT1 051650Z 23008KT 16/03 A2999 RMK A01 T01550028  RH  042%=      5-min Rain = 0
KWT1 051651Z 23008KT 16/03 A2999 RMK A01 T01560030  RH  043%=      5-min Rain = 0
KWT1 051652Z 24006KT 16/03 A2998 RMK A01 T01570030  RH  042%=      5-min Rain = 0
KWT1 051653Z 23007KT 16/03 A2998 RMK A01 T01580031  RH  042%=      5-min Rain = 0
KWT1 051654Z 23006KT 16/03 A2998 RMK A01 T01580031  RH  042%=      5-min Rain = 0
KWT1 051655Z 22007KT 16/03 A2998 RMK A01 T01610032  RH  042%=      5-min Rain = 0
KWT1 051656Z 22008KT 16/03 A2998 RMK A01 T01610031  RH  042%=      5-min Rain = 0
KWT1 051657Z 22006KT 16/03 A2998 RMK A01 T01590030  RH  042%=      5-min Rain = 0
KWT1 051658Z 22009KT 16/03 A2998 RMK A01 T01590029  RH  042%=      5-min Rain = 0
KWT1 051659Z 21009KT 16/03 A2998 RMK A01 T01580029  RH  042%=      5-min Rain = 0
KWT1 051700Z 22009KT 16/03 A2998 RMK A01 T01590031  RH  042%=      5-min Rain = 0
KWT1 051701Z 22009KT 16/03 A2998 RMK A01 T01590031  RH  042%=      5-min Rain = 0
KWT1 051702Z 23008KT 16/03 A2998 RMK A01 T01580030  RH  042%=      5-min Rain = 0
KWT1 051703Z 24007KT 16/03 A2998 RMK A01 T01580030  RH  042%=      5-min Rain = 0
KWT1 051704Z 23009KT 16/03 A2998 RMK A01 T01580032  RH  043%=      5-min Rain = 0
KWT1 051705Z 22008KT 16/03 A2998 RMK A01 T01590031  RH  042%=      5-min Rain = 0
KWT1 051706Z 22008KT 16/03 A2998 RMK A01 T01590031  RH  042%=      5-min Rain = 0
KWT1 051707Z 21008KT 16/03 A2998 RMK A01 T01590031  RH  042%=      5-min Rain = 0
KWT1 051708Z 21008KT 16/03 A2998 RMK A01 T01600033  RH  043%=      5-min Rain = 0
KWT1 051709Z 21009KT 16/03 A2997 RMK A01 T01610032  RH  042%=      5-min Rain = 0
KWT1 051710Z 22008KT 16/03 A2997 RMK A01 T01610032  RH  042%=      5-min Rain = 0
KWT1 051711Z 23007KT 16/03 A2997 RMK A01 T01630034  RH  042%=      5-min Rain = 0
KWT1 051712Z 21008KT 17/04 A2997 RMK A01 T01660036  RH  042%=      5-min Rain = 0
KWT1 051713Z 22008KT 17/04 A2997 RMK A01 T01680035  RH  041%=      5-min Rain = 0
KWT1 051714Z 21008KT 17/03 A2997 RMK A01 T01670034  RH  041%=      5-min Rain = 0
KWT1 051715Z 22010KT 17/04 A2997 RMK A01 T01680035  RH  041%=      5-min Rain = 0
KWT1 051716Z 22009KT 17/03 A2997 RMK A01 T01680034  RH  041%=      5-min Rain = 0
KWT1 051717Z 22006KT 17/04 A2997 RMK A01 T01680035  RH  041%=      5-min Rain = 0
KWT1 051718Z 23008KT 17/04 A2997 RMK A01 T01690036  RH  041%=      5-min Rain = 0
KWT1 051719Z 23009KT 17/04 A2997 RMK A01 T01710035  RH  040%=      5-min Rain = 0
KWT1 051720Z 22009KT 17/04 A2997 RMK A01 T01700035  RH  040%=      5-min Rain = 0
KWT1 051721Z 23009KT 17/04 A2997 RMK A01 T01720036  RH  040%=      5-min Rain = 0
KWT1 051722Z 23009KT 17/04 A2997 RMK A01 T01720035  RH  040%=      5-min Rain = 0
KWT1 051723Z 24009KT 17/04 A2997 RMK A01 T01730035  RH  040%=      5-min Rain = 0
KWT1 051724Z 24009KT 17/04 A2997 RMK A01 T01730037  RH  040%=      5-min Rain = 0
KWT1 051725Z 23008KT 18/04 A2997 RMK A01 T01760037  RH  040%=      5-min Rain = 0
KWT1 051726Z 21009KT 18/04 A2997 RMK A01 T01770038  RH  040%=      5-min Rain = 0
KWT1 051727Z 22008KT 18/04 A2997 RMK A01 T01790037  RH  039%=      5-min Rain = 0
KWT1 051728Z 22007KT 18/04 A2997 RMK A01 T01790038  RH  039%=      5-min Rain = 0
KWT1 051729Z 22007KT 18/04 A2997 RMK A01 T01800036  RH  038%=      5-min Rain = 0
KWT1 051730Z 23008KT 18/04 A2997 RMK A01 T01790036  RH  039%=      5-min Rain = 0
KWT1 051731Z 23007KT 18/04 A2997 RMK A01 T01790038  RH  039%=      5-min Rain = 0
KWT1 051732Z 22008KT 18/04 A2997 RMK A01 T01810038  RH  039%=      5-min Rain = 0
KWT1 051733Z 23007KT 18/04 A2997 RMK A01 T01820038  RH  038%=      5-min Rain = 0
KWT1 051734Z 24008KT 18/04 A2997 RMK A01 T01820037  RH  038%=      5-min Rain = 0
KWT1 051735Z 25006KT 18/04 A2997 RMK A01 T01820038  RH  038%=      5-min Rain = 0
KWT1 051736Z 26008KT 18/04 A2997 RMK A01 T01830038  RH  038%=      5-min Rain = 0
KWT1 051737Z 25009KT 18/04 A2996 RMK A01 T01830039  RH  038%=      5-min Rain = 0
KWT1 051738Z 24007KT 18/04 A2996 RMK A01 T01830038  RH  038%=      5-min Rain = 0
KWT1 051739Z 25006KT 19/04 A2996 RMK A01 T01850039  RH  038%=      5-min Rain = 0
KWT1 051740Z 25010KT 19/04 A2996 RMK A01 T01880041  RH  038%=      5-min Rain = 0
KWT1 051741Z 25010KT 19/04 A2996 RMK A01 T01890040  RH  037%=      5-min Rain = 0
KWT1 051742Z 24013KT 19/04 A2996 RMK A01 T01900039  RH  037%=      5-min Rain = 0
KWT1 051743Z 23011KT 19/04 A2996 RMK A01 T01890038  RH  037%=      5-min Rain = 0
KWT1 051744Z 23012KT 19/04 A2996 RMK A01 T01900038  RH  037%=      5-min Rain = 0
KWT1 051745Z 24011KT 19/04 A2996 RMK A01 T01900039  RH  037%=      5-min Rain = 0
KWT1 051746Z 24014KT 19/04 A2995 RMK A01 T01910039  RH  037%=      5-min Rain = 0
KWT1 051747Z 23010KT 19/04 A2995 RMK A01 T01920040  RH  037%=      5-min Rain = 0
KWT1 051748Z 23010KT 19/04 A2995 RMK A01 T01940041  RH  036%=      5-min Rain = 0
KWT1 051749Z 23012G17KT 19/04 A2995 RMK A01 T01940041  RH  036%=      5-min Rain = 0
KWT1 051750Z 23012KT 19/04 A2995 RMK A01 T01940040  RH  036%=      5-min Rain = 0
KWT1 051751Z 24012KT 19/04 A2995 RMK A01 T01940040  RH  036%=      5-min Rain = 0
KWT1 051752Z 23011KT 19/04 A2995 RMK A01 T01940040  RH  036%=      5-min Rain = 0
KWT1 051753Z 24010KT 20/04 A2995 RMK A01 T01950042  RH  036%=      5-min Rain = 0
KWT1 051754Z 24012KT 20/04 A2995 RMK A01 T01970042  RH  036%=      5-min Rain = 0
KWT1 051755Z 24011KT 20/04 A2995 RMK A01 T01970040  RH  035%=      5-min Rain = 0
KWT1 051756Z 24010KT 20/04 A2995 RMK A01 T01970041  RH  036%=      5-min Rain = 0
KWT1 051757Z 24011KT 20/04 A2995 RMK A01 T01970041  RH  036%=      5-min Rain = 0
KWT1 051758Z 24010KT 20/04 A2995 RMK A01 T01970041  RH  036%=      5-min Rain = 0
KWT1 051759Z 24010KT 20/04 A2995 RMK A01 T01970041  RH  036%=      5-min Rain = 0
KWT1 051800Z 25008KT 20/04 A2995 RMK A01 T01980042  RH  036%=      5-min Rain = 0
KWT1 051801Z 25007KT 20/04 A2995 RMK A01 T01990041  RH  035%=      5-min Rain = 0
KWT1 051802Z 24006KT 20/04 A2995 RMK A01 T01990043  RH  036%=      5-min Rain = 0
KWT1 051803Z 25010KT 20/04 A2995 RMK A01 T02010044  RH  035%=      5-min Rain = 0
KWT1 051804Z 25011KT 20/04 A2995 RMK A01 T02020042  RH  035%=      5-min Rain = 0
KWT1 051805Z 24009KT 20/04 A2995 RMK A01 T02020041  RH  035%=      5-min Rain = 0
KWT1 051806Z 25007KT 20/04 A2995 RMK A01 T02000040  RH  035%=      5-min Rain = 0
KWT1 051807Z 25008KT 20/04 A2995 RMK A01 T01990042  RH  035%=      5-min Rain = 0
KWT1 051808Z 26009KT 20/04 A2995 RMK A01 T02000044  RH  036%=      5-min Rain = 0
KWT1 051809Z 24010KT 20/04 A2995 RMK A01 T02020042  RH  035%=      5-min Rain = 0
KWT1 051810Z 24009KT 20/04 A2995 RMK A01 T02020041  RH  035%=      5-min Rain = 0
KWT1 051811Z 25009KT 20/04 A2995 RMK A01 T02030043  RH  035%=      5-min Rain = 0
KWT1 051812Z 23007KT 20/04 A2994 RMK A01 T02020041  RH  035%=      5-min Rain = 0
KWT1 051813Z 22007KT 20/04 A2994 RMK A01 T02010041  RH  035%=      5-min Rain = 0
KWT1 051814Z 21006KT 20/04 A2994 RMK A01 T02000041  RH  035%=      5-min Rain = 0
KWT1 051815Z 22004KT 20/04 A2994 RMK A01 T01990041  RH  035%=      5-min Rain = 0
KWT1 051816Z 25005KT 20/04 A2994 RMK A01 T02000043  RH  036%=      5-min Rain = 0
KWT1 051817Z 27007KT 20/05 A2994 RMK A01 T02030045  RH  035%=      5-min Rain = 0
KWT1 051818Z 26009KT 20/04 A2994 RMK A01 T02040044  RH  035%=      5-min Rain = 0
KWT1 051819Z 24007KT 20/04 A2994 RMK A01 T02040042  RH  034%=      5-min Rain = 0
KWT1 051820Z 23007KT 20/04 A2994 RMK A01 T02030043  RH  035%=      5-min Rain = 0
KWT1 051821Z 24009KT 21/05 A2994 RMK A01 T02050045  RH  035%=      5-min Rain = 0
KWT1 051822Z 23006KT 21/04 A2993 RMK A01 T02060043  RH  034%=      5-min Rain = 0
KWT1 051823Z 25005KT 21/05 A2993 RMK A01 T02080047  RH  035%=      5-min Rain = 0
KWT1 051824Z 24007KT 21/05 A2993 RMK A01 T02090046  RH  034%=      5-min Rain = 0
KWT1 051825Z 24008KT 21/05 A2993 RMK A01 T02100046  RH  034%=      5-min Rain = 0
KWT1 051826Z 23007KT 21/05 A2993 RMK A01 T02100046  RH  034%=      5-min Rain = 0
KWT1 051827Z 24008KT 21/05 A2993 RMK A01 T02100045  RH  034%=      5-min Rain = 0
KWT1 051828Z 25005KT 21/05 A2993 RMK A01 T02100045  RH  034%=      5-min Rain = 0
KWT1 051829Z 25005KT 21/05 A2993 RMK A01 T02090045  RH  034%=      5-min Rain = 0
KWT1 051830Z 26009KT 21/05 A2993 RMK A01 T02090047  RH  035%=      5-min Rain = 0
KWT1 051831Z 26012KT 21/05 A2993 RMK A01 T02110048  RH  034%=      5-min Rain = 0
KWT1 051832Z 26012KT 21/05 A2992 RMK A01 T02120047  RH  034%=      5-min Rain = 0
KWT1 051833Z 25009KT 21/05 A2992 RMK A01 T02130048  RH  034%=      5-min Rain = 0
KWT1 051834Z 25011KT 21/05 A2992 RMK A01 T02140047  RH  033%=      5-min Rain = 0
KWT1 051835Z 27010KT 22/05 A2992 RMK A01 T02150047  RH  033%=      5-min Rain = 0
KWT1 051836Z 25011KT 22/05 A2992 RMK A01 T02150047  RH  033%=      5-min Rain = 0
KWT1 051837Z 25010KT 22/05 A2992 RMK A01 T02160046  RH  033%=      5-min Rain = 0
KWT1 051838Z 25010KT 22/05 A2992 RMK A01 T02160047  RH  033%=      5-min Rain = 0
KWT1 051839Z 25011KT 22/05 A2992 RMK A01 T02180047  RH  033%=      5-min Rain = 0
KWT1 051840Z 26008KT 22/05 A2992 RMK A01 T02200051  RH  033%=      5-min Rain = 0
KWT1 051841Z 27010KT 23/05 A2992 RMK A01 T02250052  RH  032%=      5-min Rain = 0
KWT1 051842Z 27009KT 23/05 A2992 RMK A01 T02260049  RH  032%=      5-min Rain = 0
KWT1 051843Z 26009KT 23/05 A2992 RMK A01 T02260049  RH  032%=      5-min Rain = 0
KWT1 051844Z 25012KT 23/05 A2992 RMK A01 T02250048  RH  032%=      5-min Rain = 0
KWT1 051845Z 27011KT 23/05 A2991 RMK A01 T02250048  RH  032%=      5-min Rain = 0
KWT1 051846Z 26011KT 23/05 A2991 RMK A01 T02260049  RH  032%=      5-min Rain = 0
KWT1 051847Z 26008KT 23/05 A2991 RMK A01 T02260049  RH  032%=      5-min Rain = 0
KWT1 051848Z 25009KT 23/05 A2991 RMK A01 T02270049  RH  031%=      5-min Rain = 0
KWT1 051849Z 25008KT 23/05 A2991 RMK A01 T02260049  RH  032%=      5-min Rain = 0
KWT1 051850Z 26007KT 23/05 A2991 RMK A01 T02270049  RH  031%=      5-min Rain = 0
KWT1 051851Z 26009KT 23/05 A2991 RMK A01 T02290051  RH  032%=      5-min Rain = 0
KWT1 051852Z 26008KT 23/05 A2991 RMK A01 T02290050  RH  031%=      5-min Rain = 0
KWT1 051853Z 24009KT 23/05 A2991 RMK A01 T02290051  RH  031%=      5-min Rain = 0
KWT1 051854Z 24010KT 23/05 A299 RMK A01 T02320051  RH  031%=      5-min Rain = 0
KWT1 051855Z 25010KT 23/05 A299 RMK A01 T02340053  RH  031%=      5-min Rain = 0
KWT1 051856Z 25012KT 24/05 A299 RMK A01 T02360052  RH  030%=      5-min Rain = 0
KWT1 051857Z 26013KT 24/05 A299 RMK A01 T02360051  RH  030%=      5-min Rain = 0
KWT1 051858Z 25012KT 23/05 A299 RMK A01 T02340050  RH  030%=      5-min Rain = 0
KWT1 051859Z 24012KT 23/05 A299 RMK A01 T02340051  RH  031%=      5-min Rain = 0
KWT1 051900Z 25013KT 24/05 A299 RMK A01 T02350052  RH  031%=      5-min Rain = 0
KWT1 051901Z 25010KT 24/06 A299 RMK A01 T02380055  RH  031%=      5-min Rain = 0
KWT1 051902Z 27009KT 24/05 A299 RMK A01 T02400054  RH  030%=      5-min Rain = 0
KWT1 051903Z 25009KT 24/06 A299 RMK A01 T02400055  RH  030%=      5-min Rain = 0
KWT1 051904Z 26008G14KT 24/06 A299 RMK A01 T02430057  RH  030%=      5-min Rain = 0
KWT1 051905Z 27012G18KT 24/06 A299 RMK A01 T02440056  RH  030%=      5-min Rain = 0
KWT1 051906Z 27013KT 25/06 A299 RMK A01 T02450058  RH  030%=      5-min Rain = 0
KWT1 051907Z 28011KT 25/06 A299 RMK A01 T02450058  RH  030%=      5-min Rain = 0
KWT1 051908Z 27016KT 25/06 A2989 RMK A01 T02480061  RH  030%=      5-min Rain = 0
KWT1 051909Z 26018KT 25/06 A2989 RMK A01 T02500063  RH  030%=      5-min Rain = 0
KWT1 051910Z 28021G27KT 25/06 A2989 RMK A01 T02510063  RH  030%=      5-min Rain = 0
KWT1 051911Z 27018G26KT 25/06 A2989 RMK A01 T02510063  RH  030%=      5-min Rain = 0
KWT1 051912Z 27025G30KT 25/06 A2989 RMK A01 T02510062  RH  030%=      5-min Rain = 0
KWT1 051913Z 27021G26KT 25/06 A2989 RMK A01 T02490062  RH  030%=      5-min Rain = 0
KWT1 051914Z 27021KT 25/06 A2989 RMK A01 T02490063  RH  030%=      5-min Rain = 0
KWT1 051915Z 26022G27KT 25/06 A2989 RMK A01 T02490063  RH  030%=      5-min Rain = 0
KWT1 051916Z 26022KT 25/06 A2989 RMK A01 T02460061  RH  030%=      5-min Rain = 0
KWT1 051917Z 26021KT 24/06 A2989 RMK A01 T02440061  RH  031%=      5-min Rain = 0
KWT1 051918Z 27019KT 24/06 A2989 RMK A01 T02440061  RH  031%=      5-min Rain = 0
KWT1 051919Z 26022KT 24/06 A2989 RMK A01 T02440062  RH  031%=      5-min Rain = 0
KWT1 051920Z 26020KT 24/06 A2989 RMK A01 T02440062  RH  031%=      5-min Rain = 0
KWT1 051921Z 27022KT 24/06 A2989 RMK A01 T02440062  RH  031%=      5-min Rain = 0
KWT1 051922Z 26020KT 24/06 A2989 RMK A01 T02440061  RH  031%=      5-min Rain = 0
KWT1 051923Z 27018KT 25/06 A2989 RMK A01 T02450062  RH  031%=      5-min Rain = 0
KWT1 051924Z 27019KT 25/06 A2989 RMK A01 T02460062  RH  031%=      5-min Rain = 0
KWT1 051925Z 27020KT 25/06 A2989 RMK A01 T02460062  RH  031%=      5-min Rain = 0
KWT1 051926Z 27019G25KT 25/06 A2989 RMK A01 T02460062  RH  031%=      5-min Rain = 0
KWT1 051927Z 26019G24KT 25/06 A2988 RMK A01 T02460062  RH  031%=      5-min Rain = 0
KWT1 051928Z 26019G25KT 25/06 A2988 RMK A01 T02470061  RH  030%=      5-min Rain = 0
KWT1 051929Z 26022G30KT 25/06 A2988 RMK A01 T02470059  RH  030%=      5-min Rain = 0
KWT1 051930Z 26019KT 25/06 A2988 RMK A01 T02460057  RH  030%=      5-min Rain = 0
KWT1 051931Z 26021G26KT 25/06 A2988 RMK A01 T02450055  RH  029%=      5-min Rain = 0
KWT1 051932Z 26016G21KT 25/06 A2988 RMK A01 T02460056  RH  029%=      5-min Rain = 0
KWT1 051933Z 27015KT 25/06 A2988 RMK A01 T02490060  RH  030%=      5-min Rain = 0
KWT1 051934Z 28015G21KT 25/06 A2988 RMK A01 T02500064  RH  030%=      5-min Rain = 0
KWT1 051935Z 27018KT 25/06 A2988 RMK A01 T02510063  RH  030%=      5-min Rain = 0
KWT1 051936Z 27019KT 25/06 A2988 RMK A01 T02500060  RH  030%=      5-min Rain = 0
KWT1 051937Z 28017KT 25/06 A2988 RMK A01 T02480061  RH  030%=      5-min Rain = 0
KWT1 051938Z 28017G22KT 25/06 A2988 RMK A01 T02490061  RH  030%=      5-min Rain = 0
KWT1 051939Z 27018G23KT 25/06 A2988 RMK A01 T02480062  RH  030%=      5-min Rain = 0
KWT1 051940Z 28014G19KT 25/06 A2988 RMK A01 T02490063  RH  030%=      5-min Rain = 0
KWT1 051941Z 27016G25KT 25/06 A2988 RMK A01 T02510064  RH  030%=      5-min Rain = 0
KWT1 051942Z 27020KT 25/06 A2987 RMK A01 T02540058  RH  029%=      5-min Rain = 0
KWT1 051943Z 27021KT 25/05 A2987 RMK A01 T02510052  RH  028%=      5-min Rain = 0
KWT1 051944Z 27020G25KT 25/05 A2987 RMK A01 T02490050  RH  028%=      5-min Rain = 0
KWT1 051945Z 27023G32KT 25/05 A2987 RMK A01 T02480049  RH  028%=      5-min Rain = 0
KWT1 051946Z 27021KT 25/05 A2987 RMK A01 T02460047  RH  027%=      5-min Rain = 0
KWT1 051947Z 26024G31KT 25/05 A2987 RMK A01 T02470047  RH  027%=      5-min Rain = 0
KWT1 051948Z 27022KT 25/05 A2987 RMK A01 T02480047  RH  027%=      5-min Rain = 0
KWT1 051949Z 26018G23KT 25/05 A2987 RMK A01 T02480048  RH  028%=      5-min Rain = 0
KWT1 051950Z 27021G27KT 25/05 A2987 RMK A01 T02490049  RH  028%=      5-min Rain = 0
KWT1 051951Z 26022KT 25/05 A2987 RMK A01 T02490048  RH  027%=      5-min Rain = 0
KWT1 051952Z 25021G26KT 25/05 A2987 RMK A01 T02490047  RH  027%=      5-min Rain = 0
KWT1 051953Z 25021G26KT 25/05 A2987 RMK A01 T02500045  RH  027%=      5-min Rain = 0
KWT1 051954Z 26023G28KT 25/05 A2987 RMK A01 T02500045  RH  027%=      5-min Rain = 0
KWT1 051955Z 26024G30KT 25/04 A2987 RMK A01 T02500039  RH  025%=      5-min Rain = 0
KWT1 051956Z 27026KT 25/03 A2986 RMK A01 T02500033  RH  024%=      5-min Rain = 0
KWT1 051957Z 26025G33KT 25/03 A2987 RMK A01 T02490030  RH  024%=      5-min Rain = 0
KWT1 051958Z 26022G30KT 25/03 A2987 RMK A01 T02490032  RH  024%=      5-min Rain = 0
KWT1 051959Z 27022KT 25/03 A2987 RMK A01 T02500034  RH  025%=      5-min Rain = 0
KWT1 052000Z 26024KT 25/03 A2987 RMK A01 T02510034  RH  025%=      5-min Rain = 0
KWT1 052001Z 27022KT 25/04 A2987 RMK A01 T02500035  RH  025%=      5-min Rain = 0
KWT1 052002Z 27022G28KT 25/04 A2987 RMK A01 T02520035  RH  024%=      5-min Rain = 0
KWT1 052003Z 27021G27KT 25/04 A2987 RMK A01 T02520035  RH  024%=      5-min Rain = 0
KWT1 052004Z 27025G31KT 25/04 A2987 RMK A01 T02530037  RH  025%=      5-min Rain = 0
KWT1 052005Z 27025G30KT 25/04 A2987 RMK A01 T02530040  RH  025%=      5-min Rain = 0
KWT1 052006Z 27024G29KT 25/04 A2987 RMK A01 T02520042  RH  026%=      5-min Rain = 0
KWT1 052007Z 26022G27KT 25/04 A2987 RMK A01 T02520044  RH  026%=      5-min Rain = 0
KWT1 052008Z 26023G29KT 25/05 A2987 RMK A01 T02510045  RH  026%=      5-min Rain = 0
KWT1 052009Z 26023KT 25/05 A2986 RMK A01 T02510045  RH  026%=      5-min Rain = 0
KWT1 052010Z 26021G27KT 25/05 A2987 RMK A01 T02520045  RH  026%=      5-min Rain = 0
KWT1 052011Z 27021G26KT 25/04 A2987 RMK A01 T02530044  RH  026%=      5-min Rain = 0
KWT1 052012Z 27022G28KT 25/04 A2987 RMK A01 T02520043  RH  026%=      5-min Rain = 0
KWT1 052013Z 27020G26KT 25/05 A2987 RMK A01 T02510045  RH  026%=      5-min Rain = 0
KWT1 052014Z 26020G25KT 25/05 A2987 RMK A01 T02510046  RH  027%=      5-min Rain = 0
KWT1 052015Z 26021G27KT 25/05 A2987 RMK A01 T02520048  RH  027%=      5-min Rain = 0
KWT1 052016Z 26024G30KT 25/05 A2987 RMK A01 T02520046  RH  027%=      5-min Rain = 0
KWT1 052017Z 25024G29KT 25/05 A2986 RMK A01 T02510046  RH  027%=      5-min Rain = 0
KWT1 052018Z 26026G31KT 25/05 A2986 RMK A01 T02510047  RH  027%=      5-min Rain = 0
KWT1 052019Z 26025KT 25/05 A2987 RMK A01 T02510048  RH  027%=      5-min Rain = 0
KWT1 052020Z 25024G30KT 25/05 A2987 RMK A01 T02510048  RH  027%=      5-min Rain = 0
KWT1 052021Z 26023G29KT 25/05 A2987 RMK A01 T02510047  RH  027%=      5-min Rain = 0
KWT1 052022Z 26024KT 25/05 A2986 RMK A01 T02490046  RH  027%=      5-min Rain = 0
KWT1 052023Z 26024G30KT 25/05 A2986 RMK A01 T02490046  RH  027%=      5-min Rain = 0
KWT1 052024Z 26025G31KT 25/05 A2986 RMK A01 T02490048  RH  027%=      5-min Rain = 0
KWT1 052025Z 26021G29KT 25/05 A2987 RMK A01 T02490048  RH  027%=      5-min Rain = 0
KWT1 052026Z 26023G30KT 25/05 A2987 RMK A01 T02490048  RH  027%=      5-min Rain = 0
KWT1 052027Z 26025G30KT 25/05 A2986 RMK A01 T02480046  RH  027%=      5-min Rain = 0
KWT1 052028Z 26020G25KT 25/05 A2987 RMK A01 T02470046  RH  027%=      5-min Rain = 0
KWT1 052029Z 27022G34KT 25/05 A2986 RMK A01 T02460046  RH  027%=      5-min Rain = 0
KWT1 052030Z 27026KT 25/05 A2986 RMK A01 T02460045  RH  027%=      5-min Rain = 0
KWT1 052031Z 27025G30KT 25/04 A2986 RMK A01 T02460043  RH  027%=      5-min Rain = 0
KWT1 052032Z 26027G34KT 25/04 A2986 RMK A01 T02460043  RH  027%=      5-min Rain = 0
KWT1 052033Z 26021KT 25/04 A2987 RMK A01 T02450044  RH  027%=      5-min Rain = 0
KWT1 052034Z 26022KT 25/05 A2986 RMK A01 T02460045  RH  027%=      5-min Rain = 0
KWT1 052035Z 27022G28KT 25/04 A2986 RMK A01 T02460043  RH  027%=      5-min Rain = 0
KWT1 052036Z 27023G28KT 25/04 A2987 RMK A01 T02460042  RH  027%=      5-min Rain = 0
KWT1 052037Z 27019KT 25/04 A2987 RMK A01 T02450044  RH  027%=      5-min Rain = 0
KWT1 052038Z 26024G29KT 25/04 A2986 RMK A01 T02450044  RH  027%=      5-min Rain = 0
KWT1 052039Z 27022G31KT 25/04 A2986 RMK A01 T02450043  RH  027%=      5-min Rain = 0
KWT1 052040Z 26025G31KT 25/04 A2986 RMK A01 T02450044  RH  027%=      5-min Rain = 0
KWT1 052041Z 26023KT 24/05 A2986 RMK A01 T02440045  RH  027%=      5-min Rain = 0
KWT1 052042Z 27017G24KT 24/05 A2987 RMK A01 T02430045  RH  028%=      5-min Rain = 0
KWT1 052043Z 26016KT 24/05 A2987 RMK A01 T02430047  RH  028%=      5-min Rain = 0
KWT1 052044Z 27015KT 24/05 A2987 RMK A01 T02440047  RH  028%=      5-min Rain = 0
KWT1 052045Z 27015KT 24/05 A2987 RMK A01 T02440048  RH  028%=      5-min Rain = 0
KWT1 052046Z 27016G23KT 25/05 A2987 RMK A01 T02450048  RH  028%=      5-min Rain = 0
KWT1 052047Z 27018KT 25/05 A2987 RMK A01 T02450046  RH  028%=      5-min Rain = 0
KWT1 052048Z 26020G25KT 24/05 A2987 RMK A01 T02440047  RH  028%=      5-min Rain = 0
KWT1 052049Z 26020G25KT 24/05 A2987 RMK A01 T02440046  RH  028%=      5-min Rain = 0
KWT1 052050Z 26021KT 24/05 A2987 RMK A01 T02440046  RH  028%=      5-min Rain = 0
KWT1 052051Z 26017KT 24/05 A2987 RMK A01 T02430047  RH  028%=      5-min Rain = 0
KWT1 052052Z 26019G24KT 24/05 A2987 RMK A01 T02440046  RH  028%=      5-min Rain = 0
KWT1 052053Z 26016KT 24/05 A2987 RMK A01 T02440047  RH  028%=      5-min Rain = 0
KWT1 052054Z 26019G24KT 24/05 A2987 RMK A01 T02440048  RH  028%=      5-min Rain = 0
KWT1 052055Z 26023KT 24/05 A2986 RMK A01 T02440047  RH  028%=      5-min Rain = 0
KWT1 052056Z 26023G28KT 24/05 A2987 RMK A01 T02430045  RH  028%=      5-min Rain = 0
KWT1 052057Z 26021G27KT 24/05 A2986 RMK A01 T02430045  RH  028%=      5-min Rain = 0
KWT1 052058Z 26018G23KT 24/05 A2987 RMK A01 T02430046  RH  028%=      5-min Rain = 0
KWT1 052059Z 25024G29KT 24/05 A2986 RMK A01 T02430045  RH  028%=      5-min Rain = 0
KWT1 052100Z 26020G27KT 24/04 A2987 RMK A01 T02420044  RH  028%=      5-min Rain = 0
KWT1 052101Z 26020G26KT 24/05 A2987 RMK A01 T02420045  RH  028%=      5-min Rain = 0
KWT1 052102Z 26024G29KT 24/05 A2986 RMK A01 T02410045  RH  028%=      5-min Rain = 0
KWT1 052103Z 26022KT 24/05 A2987 RMK A01 T02410046  RH  028%=      5-min Rain = 0
KWT1 052104Z 26023G29KT 24/05 A2987 RMK A01 T02400047  RH  029%=      5-min Rain = 0
KWT1 052105Z 25020G26KT 24/05 A2987 RMK A01 T02400047  RH  029%=      5-min Rain = 0
KWT1 052106Z 26022G28KT 24/05 A2987 RMK A01 T02400048  RH  029%=      5-min Rain = 0
KWT1 052107Z 26023KT 24/05 A2987 RMK A01 T02400048  RH  029%=      5-min Rain = 0
KWT1 052108Z 27019KT 24/05 A2987 RMK A01 T02400048  RH  029%=      5-min Rain = 0
KWT1 052109Z 25017KT 24/05 A2987 RMK A01 T02400049  RH  029%=      5-min Rain = 0
KWT1 052110Z 26021KT 24/05 A2987 RMK A01 T02400048  RH  029%=      5-min Rain = 0
KWT1 052111Z 26019KT 24/05 A2987 RMK A01 T02400047  RH  029%=      5-min Rain = 0
KWT1 052112Z 26018G24KT 24/05 A2987 RMK A01 T02400048  RH  029%=      5-min Rain = 0
KWT1 052113Z 26018KT 24/05 A2987 RMK A01 T02400048  RH  029%=      5-min Rain = 0
KWT1 052114Z 26023G29KT 24/05 A2987 RMK A01 T02400048  RH  029%=      5-min Rain = 0
KWT1 052115Z 27020KT 24/05 A2987 RMK A01 T02390048  RH  029%=      5-min Rain = 0
KWT1 052116Z 27020G28KT 24/05 A2987 RMK A01 T02390048  RH  029%=      5-min Rain = 0
KWT1 052117Z 27020KT 24/05 A2987 RMK A01 T02390047  RH  029%=      5-min Rain = 0
KWT1 052118Z 26019G24KT 24/05 A2987 RMK A01 T02390046  RH  029%=      5-min Rain = 0
KWT1 052119Z 26019G24KT 24/05 A2987 RMK A01 T02390047  RH  029%=      5-min Rain = 0
KWT1 052120Z 27020G26KT 24/05 A2987 RMK A01 T02390046  RH  029%=      5-min Rain = 0
KWT1 052121Z 27020G26KT 24/04 A2987 RMK A01 T02390044  RH  028%=      5-min Rain = 0
KWT1 052122Z 27021G27KT 24/04 A2987 RMK A01 T02390043  RH  028%=      5-min Rain = 0
KWT1 052123Z 26019KT 24/04 A2987 RMK A01 T02400043  RH  028%=      5-min Rain = 0
KWT1 052124Z 27017KT 24/04 A2987 RMK A01 T02400044  RH  028%=      5-min Rain = 0
KWT1 052125Z 27017G22KT 24/05 A2987 RMK A01 T02420046  RH  028%=      5-min Rain = 0
KWT1 052126Z 26018G23KT 24/05 A2987 RMK A01 T02420045  RH  028%=      5-min Rain = 0
KWT1 052127Z 26014G20KT 24/05 A2987 RMK A01 T02430046  RH  028%=      5-min Rain = 0
KWT1 052128Z 27022KT 24/05 A2987 RMK A01 T02440047  RH  028%=      5-min Rain = 0
KWT1 052129Z 27021KT 24/05 A2987 RMK A01 T02440046  RH  028%=      5-min Rain = 0
KWT1 052130Z 26018G23KT 24/05 A2987 RMK A01 T02440045  RH  028%=      5-min Rain = 0
KWT1 052131Z 27022G27KT 24/05 A2987 RMK A01 T02440045  RH  028%=      5-min Rain = 0
KWT1 052132Z 26019G24KT 24/04 A2987 RMK A01 T02440044  RH  027%=      5-min Rain = 0
KWT1 052133Z 26023G28KT 24/05 A2987 RMK A01 T02440046  RH  028%=      5-min Rain = 0
KWT1 052134Z 26021G26KT 24/05 A2987 RMK A01 T02440045  RH  028%=      5-min Rain = 0
KWT1 052135Z 26020G27KT 24/05 A2987 RMK A01 T02430045  RH  028%=      5-min Rain = 0
KWT1 052136Z 26023KT 24/05 A2987 RMK A01 T02430045  RH  028%=      5-min Rain = 0
KWT1 052137Z 27023KT 24/04 A2987 RMK A01 T02430044  RH  028%=      5-min Rain = 0
KWT1 052138Z 27022KT 24/04 A2987 RMK A01 T02430044  RH  028%=      5-min Rain = 0
KWT1 052139Z 26021KT 24/04 A2987 RMK A01 T02430044  RH  028%=      5-min Rain = 0
KWT1 052140Z 26017KT 24/05 A2987 RMK A01 T02430046  RH  028%=      5-min Rain = 0
KWT1 052141Z 26019G25KT 24/05 A2987 RMK A01 T02430047  RH  028%=      5-min Rain = 0
KWT1 052142Z 26023G28KT 24/04 A2987 RMK A01 T02430044  RH  028%=      5-min Rain = 0
KWT1 052143Z 26021KT 24/04 A2987 RMK A01 T02430044  RH  028%=      5-min Rain = 0
KWT1 052144Z 25021KT 24/04 A2987 RMK A01 T02420044  RH  028%=      5-min Rain = 0
KWT1 052145Z 26026KT 24/04 A2987 RMK A01 T02410043  RH  028%=      5-min Rain = 0
KWT1 052146Z 26022G27KT 24/04 A2987 RMK A01 T02410042  RH  028%=      5-min Rain = 0
KWT1 052147Z 26021G27KT 24/04 A2987 RMK A01 T02410044  RH  028%=      5-min Rain = 0
KWT1 052148Z 26020G25KT 24/05 A2987 RMK A01 T02410045  RH  028%=      5-min Rain = 0
KWT1 052149Z 26016KT 24/05 A2987 RMK A01 T02410046  RH  028%=      5-min Rain = 0
KWT1 052150Z 26018KT 24/05 A2987 RMK A01 T02410047  RH  028%=      5-min Rain = 0
KWT1 052151Z 26019KT 24/05 A2987 RMK A01 T02420047  RH  028%=      5-min Rain = 0
KWT1 052152Z 26016KT 24/05 A2987 RMK A01 T02410046  RH  028%=      5-min Rain = 0
KWT1 052153Z 25019KT 24/05 A2987 RMK A01 T02410046  RH  028%=      5-min Rain = 0
KWT1 052154Z 26021KT 24/04 A2987 RMK A01 T02410044  RH  028%=      5-min Rain = 0
KWT1 052155Z 26017G22KT 24/04 A2987 RMK A01 T02410043  RH  028%=      5-min Rain = 0
KWT1 052156Z 26019G24KT 24/04 A2987 RMK A01 T02400043  RH  028%=      5-min Rain = 0
KWT1 052157Z 26018KT 24/04 A2987 RMK A01 T02400042  RH  028%=      5-min Rain = 0
KWT1 052158Z 26018KT 24/04 A2987 RMK A01 T02400043  RH  028%=      5-min Rain = 0
KWT1 052159Z 25016KT 24/04 A2987 RMK A01 T02400043  RH  028%=      5-min Rain = 0
KWT1 052200Z 25017G23KT 24/05 A2987 RMK A01 T02410045  RH  028%=      5-min Rain = 0
KWT1 052201Z 25018KT 24/04 A2987 RMK A01 T02410044  RH  028%=      5-min Rain = 0
KWT1 052202Z 25017G22KT 24/04 A2987 RMK A01 T02400044  RH  028%=      5-min Rain = 0
KWT1 052203Z 25018KT 24/04 A2987 RMK A01 T02400044  RH  028%=      5-min Rain = 0
KWT1 052204Z 26017KT 24/05 A2987 RMK A01 T02400045  RH  028%=      5-min Rain = 0
KWT1 052205Z 26015KT 24/05 A2987 RMK A01 T02390046  RH  028%=      5-min Rain = 0
KWT1 052206Z 26014G19KT 24/05 A2987 RMK A01 T02390046  RH  028%=      5-min Rain = 0
KWT1 052207Z 26015KT 24/05 A2988 RMK A01 T02390046  RH  029%=      5-min Rain = 0
KWT1 052208Z 26015G21KT 24/05 A2988 RMK A01 T02390046  RH  029%=      5-min Rain = 0
KWT1 052209Z 26019G24KT 24/05 A2987 RMK A01 T02390045  RH  028%=      5-min Rain = 0
KWT1 052210Z 26015KT 24/05 A2988 RMK A01 T02390045  RH  028%=      5-min Rain = 0
KWT1 052211Z 27018KT 24/05 A2987 RMK A01 T02390045  RH  028%=      5-min Rain = 0
KWT1 052212Z 27019KT 24/05 A2987 RMK A01 T02390045  RH  028%=      5-min Rain = 0
KWT1 052213Z 26018KT 24/04 A2987 RMK A01 T02380044  RH  028%=      5-min Rain = 0
KWT1 052214Z 26016KT 24/05 A2988 RMK A01 T02380045  RH  028%=      5-min Rain = 0
KWT1 052215Z 26019KT 24/04 A2987 RMK A01 T02380044  RH  028%=      5-min Rain = 0
KWT1 052216Z 26019KT 24/05 A2987 RMK A01 T02380045  RH  029%=      5-min Rain = 0
KWT1 052217Z 25015KT 24/05 A2987 RMK A01 T02380045  RH  029%=      5-min Rain = 0
KWT1 052218Z 25019KT 24/05 A2987 RMK A01 T02370045  RH  029%=      5-min Rain = 0
KWT1 052219Z 25019KT 24/05 A2987 RMK A01 T02380045  RH  029%=      5-min Rain = 0
KWT1 052220Z 26019KT 24/04 A2987 RMK A01 T02370044  RH  029%=      5-min Rain = 0
KWT1 052221Z 26017KT 24/05 A2988 RMK A01 T02370045  RH  029%=      5-min Rain = 0
KWT1 052222Z 25017KT 24/05 A2987 RMK A01 T02380045  RH  029%=      5-min Rain = 0
KWT1 052223Z 25017G23KT 24/05 A2988 RMK A01 T02370045  RH  029%=      5-min Rain = 0
KWT1 052224Z 26021G26KT 24/05 A2988 RMK A01 T02370045  RH  029%=      5-min Rain = 0
KWT1 052225Z 26019KT 24/05 A2988 RMK A01 T02360045  RH  029%=      5-min Rain = 0
KWT1 052226Z 26019KT 24/05 A2988 RMK A01 T02360045  RH  029%=      5-min Rain = 0
KWT1 052227Z 25016KT 24/05 A2988 RMK A01 T02360045  RH  029%=      5-min Rain = 0
KWT1 052228Z 25013KT 24/05 A2988 RMK A01 T02360046  RH  029%=      5-min Rain = 0
KWT1 052229Z 25017KT 24/05 A2988 RMK A01 T02360046  RH  029%=      5-min Rain = 0
KWT1 052230Z 25015KT 24/05 A2988 RMK A01 T02360046  RH  029%=      5-min Rain = 0
KWT1 052231Z 25016KT 24/05 A2988 RMK A01 T02350047  RH  029%=      5-min Rain = 0
KWT1 052232Z 25019KT 24/05 A2988 RMK A01 T02350046  RH  029%=      5-min Rain = 0
KWT1 052233Z 25017KT 24/05 A2988 RMK A01 T02350046  RH  029%=      5-min Rain = 0
KWT1 052234Z 24018KT 24/05 A2988 RMK A01 T02350046  RH  029%=      5-min Rain = 0
KWT1 052235Z 25017KT 24/05 A2988 RMK A01 T02350046  RH  029%=      5-min Rain = 0
KWT1 052236Z 25018G24KT 24/05 A2988 RMK A01 T02350046  RH  029%=      5-min Rain = 0
KWT1 052237Z 25017KT 23/05 A2988 RMK A01 T02340046  RH  029%=      5-min Rain = 0
KWT1 052238Z 25022KT 23/05 A2988 RMK A01 T02340046  RH  029%=      5-min Rain = 0
KWT1 052239Z 25019G24KT 23/05 A2988 RMK A01 T02340045  RH  029%=      5-min Rain = 0
KWT1 052240Z 25021KT 23/05 A2988 RMK A01 T02340045  RH  029%=      5-min Rain = 0
KWT1 052241Z 26018KT 23/05 A2988 RMK A01 T02330045  RH  029%=      5-min Rain = 0
KWT1 052242Z 26015KT 23/05 A2988 RMK A01 T02330046  RH  030%=      5-min Rain = 0
KWT1 052243Z 26017G22KT 23/05 A2988 RMK A01 T02330046  RH  030%=      5-min Rain = 0
KWT1 052244Z 26015G20KT 23/05 A2988 RMK A01 T02330046  RH  030%=      5-min Rain = 0
KWT1 052245Z 26014G19KT 23/05 A2989 RMK A01 T02320046  RH  030%=      5-min Rain = 0
KWT1 052246Z 25011KT 23/05 A2989 RMK A01 T02310047  RH  030%=      5-min Rain = 0
KWT1 052247Z 26011KT 23/05 A2989 RMK A01 T02300047  RH  030%=      5-min Rain = 0
KWT1 052248Z 26016KT 23/05 A2988 RMK A01 T02300047  RH  030%=      5-min Rain = 0
KWT1 052249Z 25016KT 23/05 A2988 RMK A01 T02300047  RH  030%=      5-min Rain = 0
KWT1 052250Z 25018KT 23/05 A2988 RMK A01 T02300046  RH  030%=      5-min Rain = 0
KWT1 052251Z 26014KT 23/05 A2989 RMK A01 T02300046  RH  030%=      5-min Rain = 0
KWT1 052252Z 25015KT 23/05 A2989 RMK A01 T02290046  RH  030%=      5-min Rain = 0
KWT1 052253Z 25015KT 23/05 A2989 RMK A01 T02290046  RH  030%=      5-min Rain = 0
KWT1 052254Z 26015KT 23/05 A2989 RMK A01 T02290046  RH  030%=      5-min Rain = 0
KWT1 052255Z 26014G20KT 23/05 A2989 RMK A01 T02290046  RH  030%=      5-min Rain = 0
KWT1 052256Z 26014KT 23/05 A2989 RMK A01 T02290046  RH  030%=      5-min Rain = 0
KWT1 052257Z 26015KT 23/05 A2989 RMK A01 T02280046  RH  030%=      5-min Rain = 0
KWT1 052258Z 26013KT 23/05 A2989 RMK A01 T02280046  RH  031%=      5-min Rain = 0
KWT1 052259Z 26015KT 23/05 A2989 RMK A01 T02270046  RH  031%=      5-min Rain = 0
KWT1 052300Z 25015KT 23/05 A2989 RMK A01 T02270046  RH  031%=      5-min Rain = 0
KWT1 052301Z 26014KT 23/05 A2989 RMK A01 T02270046  RH  031%=      5-min Rain = 0
KWT1 052302Z 25014KT 23/05 A2989 RMK A01 T02270046  RH  031%=      5-min Rain = 0
KWT1 052303Z 25016KT 23/05 A2989 RMK A01 T02270046  RH  031%=      5-min Rain = 0
KWT1 052304Z 25015KT 23/05 A2989 RMK A01 T02260045  RH  031%=      5-min Rain = 0
KWT1 052305Z 25014KT 23/05 A2989 RMK A01 T02260045  RH  031%=      5-min Rain = 0
KWT1 052306Z 25012KT 23/05 A2989 RMK A01 T02260045  RH  031%=      5-min Rain = 0
KWT1 052307Z 25015KT 23/05 A2989 RMK A01 T02250045  RH  031%=      5-min Rain = 0
KWT1 052308Z 25015KT 22/05 A2989 RMK A01 T02240045  RH  031%=      5-min Rain = 0
KWT1 052309Z 25012KT 22/05 A2989 RMK A01 T02240045  RH  031%=      5-min Rain = 0
KWT1 052310Z 25013KT 22/05 A2989 RMK A01 T02230045  RH  031%=      5-min Rain = 0
KWT1 052311Z 25011KT 22/05 A2989 RMK A01 T02230045  RH  031%=      5-min Rain = 0
KWT1 052312Z 25014KT 22/05 A2989 RMK A01 T02220045  RH  032%=      5-min Rain = 0
KWT1 052313Z 25012KT 22/05 A2989 RMK A01 T02210045  RH  032%=      5-min Rain = 0
KWT1 052314Z 25013KT 22/05 A299 RMK A01 T02210045  RH  032%=      5-min Rain = 0
KWT1 052315Z 25012KT 22/05 A299 RMK A01 T02200045  RH  032%=      5-min Rain = 0
KWT1 052316Z 25013KT 22/05 A299 RMK A01 T02200046  RH  032%=      5-min Rain = 0
KWT1 052317Z 25014G19KT 22/05 A299 RMK A01 T02190045  RH  032%=      5-min Rain = 0
KWT1 052318Z 25014KT 22/05 A299 RMK A01 T02190045  RH  032%=      5-min Rain = 0
KWT1 052319Z 25013KT 22/05 A299 RMK A01 T02190045  RH  032%=      5-min Rain = 0
KWT1 052320Z 25014KT 22/05 A299 RMK A01 T02190045  RH  032%=      5-min Rain = 0
KWT1 052321Z 25015KT 22/05 A299 RMK A01 T02190045  RH  032%=      5-min Rain = 0
KWT1 052322Z 25012KT 22/05 A299 RMK A01 T02190045  RH  032%=      5-min Rain = 0
KWT1 052323Z 25013KT 22/05 A299 RMK A01 T02180045  RH  032%=      5-min Rain = 0
KWT1 052324Z 25012G17KT 22/05 A299 RMK A01 T02170046  RH  033%=      5-min Rain = 0
KWT1 052325Z 25012KT 22/05 A299 RMK A01 T02170046  RH  033%=      5-min Rain = 0
KWT1 052326Z 25014KT 22/05 A299 RMK A01 T02160046  RH  033%=      5-min Rain = 0
KWT1 052327Z 25014KT 22/05 A299 RMK A01 T02160046  RH  033%=      5-min Rain = 0
KWT1 052328Z 25014G19KT 22/05 A299 RMK A01 T02160046  RH  033%=      5-min Rain = 0
KWT1 052329Z 25011KT 22/05 A299 RMK A01 T02170046  RH  033%=      5-min Rain = 0
KWT1 052330Z 25014KT 22/05 A2991 RMK A01 T02160046  RH  033%=      5-min Rain = 0
KWT1 052331Z 25013KT 22/05 A2991 RMK A01 T02150046  RH  033%=      5-min Rain = 0
KWT1 052332Z 25012KT 22/05 A2991 RMK A01 T02150047  RH  033%=      5-min Rain = 0
KWT1 052333Z 25014KT 21/05 A2991 RMK A01 T02140046  RH  033%=      5-min Rain = 0
KWT1 052334Z 25012KT 21/05 A2991 RMK A01 T02140047  RH  034%=      5-min Rain = 0
KWT1 052335Z 25011KT 21/05 A2991 RMK A01 T02130046  RH  034%=      5-min Rain = 0
KWT1 052336Z 24011KT 21/05 A2991 RMK A01 T02120047  RH  034%=      5-min Rain = 0
KWT1 052337Z 24012KT 21/05 A2991 RMK A01 T02110047  RH  034%=      5-min Rain = 0
KWT1 052338Z 24010G15KT 21/05 A2991 RMK A01 T02100047  RH  034%=      5-min Rain = 0
KWT1 052339Z 25012KT 21/05 A2991 RMK A01 T02090047  RH  034%=      5-min Rain = 0
KWT1 052340Z 25010KT 21/05 A2991 RMK A01 T02090047  RH  034%=      5-min Rain = 0
KWT1 052341Z 25011KT 21/05 A2991 RMK A01 T02090047  RH  035%=      5-min Rain = 0
KWT1 052342Z 25010KT 21/05 A2991 RMK A01 T02080047  RH  035%=      5-min Rain = 0
KWT1 052343Z 25010KT 21/05 A2991 RMK A01 T02070047  RH  035%=      5-min Rain = 0
KWT1 052344Z 25010KT 21/05 A2991 RMK A01 T02070047  RH  035%=      5-min Rain = 0
KWT1 052345Z 25011KT 21/05 A2991 RMK A01 T02070047  RH  035%=      5-min Rain = 0
KWT1 052346Z 25011KT 21/05 A2991 RMK A01 T02070048  RH  035%=      5-min Rain = 0
KWT1 052347Z 25010KT 21/05 A2991 RMK A01 T02070048  RH  035%=      5-min Rain = 0
KWT1 052348Z 25011KT 21/05 A2991 RMK A01 T02070047  RH  035%=      5-min Rain = 0
KWT1 052349Z 25010KT 21/05 A2991 RMK A01 T02070048  RH  035%=      5-min Rain = 0
KWT1 052350Z 24011KT 21/05 A2991 RMK A01 T02060047  RH  035%=      5-min Rain = 0
KWT1 052351Z 24010KT 21/05 A2991 RMK A01 T02060047  RH  035%=      5-min Rain = 0
KWT1 052352Z 25012KT 21/05 A2991 RMK A01 T02060047  RH  035%=      5-min Rain = 0
KWT1 052353Z 24011KT 21/05 A2992 RMK A01 T02070047  RH  035%=      5-min Rain = 0
KWT1 052354Z 25011KT 21/05 A2992 RMK A01 T02070047  RH  035%=      5-min Rain = 0
KWT1 052355Z 24010KT 21/05 A2992 RMK A01 T02070047  RH  035%=      5-min Rain = 0
KWT1 052356Z 25010KT 21/05 A2992 RMK A01 T02070048  RH  035%=      5-min Rain = 0
KWT1 052357Z 25009KT 21/05 A2992 RMK A01 T02050047  RH  035%=      5-min Rain = 0
KWT1 052358Z 25010KT 20/05 A2992 RMK A01 T02040047  RH  036%=      5-min Rain = 0
KWT1 052359Z 25010KT 20/05 A2992 RMK A01 T02040048  RH  036%=      5-min Rain = 0
KWT1 060000Z 25008KT 20/05 A2992 RMK A01 T02030047  RH  036%=      5-min Rain = 0
KWT1 060001Z 24010KT 20/05 A2992 RMK A01 T02020047  RH  036%=      5-min Rain = 0
KWT1 060002Z 25009KT 20/05 A2992 RMK A01 T02020047  RH  036%=      5-min Rain = 0
KWT1 060003Z 25010KT 20/05 A2992 RMK A01 T02010047  RH  037%=      5-min Rain = 0
KWT1 060004Z 24010KT 20/05 A2992 RMK A01 T02000047  RH  037%=      5-min Rain = 0
KWT1 060005Z 25009KT 20/05 A2992 RMK A01 T02000048  RH  037%=      5-min Rain = 0
KWT1 060006Z 25010KT 20/05 A2992 RMK A01 T01990048  RH  037%=      5-min Rain = 0
KWT1 060007Z 25009KT 20/05 A2992 RMK A01 T01990048  RH  037%=      5-min Rain = 0
KWT1 060008Z 25010KT 20/05 A2992 RMK A01 T01980048  RH  037%=      5-min Rain = 0
KWT1 060009Z 25009KT 20/05 A2992 RMK A01 T01970048  RH  037%=      5-min Rain = 0
KWT1 060010Z 25010KT 20/05 A2992 RMK A01 T01960048  RH  038%=      5-min Rain = 0
KWT1 060011Z 25010KT 20/05 A2992 RMK A01 T01950048  RH  038%=      5-min Rain = 0
KWT1 060012Z 25010KT 20/05 A2992 RMK A01 T01950048  RH  038%=      5-min Rain = 0
KWT1 060013Z 25010KT 20/05 A2992 RMK A01 T01950049  RH  038%=      5-min Rain = 0
KWT1 060014Z 25009KT 19/05 A2992 RMK A01 T01940049  RH  038%=      5-min Rain = 0
KWT1 060015Z 25010KT 19/05 A2993 RMK A01 T01930049  RH  039%=      5-min Rain = 0
KWT1 060016Z 26011KT 19/05 A2993 RMK A01 T01930049  RH  039%=      5-min Rain = 0
KWT1 060017Z 25010KT 19/05 A2993 RMK A01 T01930049  RH  039%=      5-min Rain = 0
KWT1 060018Z 25010KT 19/05 A2993 RMK A01 T01940049  RH  039%=      5-min Rain = 0
KWT1 060019Z 25011KT 19/05 A2993 RMK A01 T01940049  RH  039%=      5-min Rain = 0
KWT1 060020Z 25011KT 20/05 A2993 RMK A01 T01950050  RH  038%=      5-min Rain = 0
KWT1 060021Z 25011KT 20/05 A2993 RMK A01 T01950049  RH  038%=      5-min Rain = 0
KWT1 060022Z 25011KT 20/05 A2993 RMK A01 T01950049  RH  038%=      5-min Rain = 0
KWT1 060023Z 25011KT 20/05 A2993 RMK A01 T01960050  RH  038%=      5-min Rain = 0
KWT1 060024Z 25010KT 20/05 A2993 RMK A01 T01960049  RH  038%=      5-min Rain = 0
KWT1 060025Z 25010KT 20/05 A2993 RMK A01 T01970049  RH  038%=      5-min Rain = 0
KWT1 060026Z 25010KT 20/05 A2993 RMK A01 T01970049  RH  038%=      5-min Rain = 0
KWT1 060027Z 25009KT 20/05 A2993 RMK A01 T01960049  RH  038%=      5-min Rain = 0
KWT1 060028Z 25009KT 20/05 A2993 RMK A01 T01950049  RH  038%=      5-min Rain = 0
KWT1 060029Z 25009KT 19/05 A2994 RMK A01 T01940049  RH  038%=      5-min Rain = 0
KWT1 060030Z 25009KT 19/05 A2994 RMK A01 T01930049  RH  039%=      5-min Rain = 0
KWT1 060031Z 25009KT 19/05 A2994 RMK A01 T01920049  RH  039%=      5-min Rain = 0
KWT1 060032Z 25008KT 19/05 A2994 RMK A01 T01920049  RH  039%=      5-min Rain = 0
KWT1 060033Z 25008KT 19/05 A2994 RMK A01 T01910050  RH  039%=      5-min Rain = 0
KWT1 060034Z 25008KT 19/05 A2994 RMK A01 T01910050  RH  040%=      5-min Rain = 0
KWT1 060035Z 25008KT 19/05 A2994 RMK A01 T01890049  RH  040%=      5-min Rain = 0
KWT1 060036Z 25008KT 19/05 A2994 RMK A01 T01890050  RH  040%=      5-min Rain = 0
KWT1 060037Z 25008KT 19/05 A2994 RMK A01 T01880050  RH  040%=      5-min Rain = 0
KWT1 060038Z 25008KT 19/05 A2994 RMK A01 T01880049  RH  040%=      5-min Rain = 0
KWT1 060039Z 25008KT 19/05 A2994 RMK A01 T01880049  RH  040%=      5-min Rain = 0
KWT1 060040Z 25007KT 19/05 A2994 RMK A01 T01870049  RH  040%=      5-min Rain = 0
KWT1 060041Z 25008KT 19/05 A2994 RMK A01 T01870049  RH  040%=      5-min Rain = 0
KWT1 060042Z 25008KT 19/05 A2994 RMK A01 T01860050  RH  041%=      5-min Rain = 0
KWT1 060043Z 25008KT 19/05 A2994 RMK A01 T01850050  RH  041%=      5-min Rain = 0
KWT1 060044Z 25008KT 18/05 A2994 RMK A01 T01840049  RH  041%=      5-min Rain = 0
KWT1 060045Z 25008KT 18/05 A2994 RMK A01 T01830049  RH  041%=      5-min Rain = 0
KWT1 060046Z 25008KT 18/05 A2994 RMK A01 T01830049  RH  041%=      5-min Rain = 0
KWT1 060047Z 25008KT 18/05 A2994 RMK A01 T01820049  RH  041%=      5-min Rain = 0
KWT1 060048Z 25008KT 18/05 A2995 RMK A01 T01820050  RH  042%=      5-min Rain = 0
KWT1 060049Z 25009KT 18/05 A2995 RMK A01 T01810049  RH  042%=      5-min Rain = 0
KWT1 060050Z 25008KT 18/05 A2995 RMK A01 T01800049  RH  042%=      5-min Rain = 0
KWT1 060051Z 25008KT 18/05 A2995 RMK A01 T01800049  RH  042%=      5-min Rain = 0
KWT1 060052Z 25008KT 18/05 A2995 RMK A01 T01790049  RH  042%=      5-min Rain = 0
KWT1 060053Z 25008KT 18/05 A2995 RMK A01 T01790050  RH  043%=      5-min Rain = 0
KWT1 060054Z 25008KT 18/05 A2995 RMK A01 T01780050  RH  043%=      5-min Rain = 0
KWT1 060055Z 25008KT 18/05 A2995 RMK A01 T01780050  RH  043%=      5-min Rain = 0
KWT1 060056Z 25008KT 18/05 A2995 RMK A01 T01770049  RH  043%=      5-min Rain = 0
KWT1 060057Z 25008KT 18/05 A2995 RMK A01 T01760049  RH  043%=      5-min Rain = 0
KWT1 060058Z 25008KT 18/05 A2995 RMK A01 T01760050  RH  043%=      5-min Rain = 0
KWT1 060059Z 25008KT 18/05 A2995 RMK A01 T01750050  RH  044%=      5-min Rain = 0
KWT1 060100Z 25008KT 17/05 A2995 RMK A01 T01740050  RH  044%=      5-min Rain = 0
KWT1 060101Z 25008KT 17/05 A2995 RMK A01 T01740049  RH  044%=      5-min Rain = 0
KWT1 060102Z 25008KT 17/05 A2995 RMK A01 T01740050  RH  044%=      5-min Rain = 0
KWT1 060103Z 25008KT 17/05 A2995 RMK A01 T01740050  RH  044%=      5-min Rain = 0
KWT1 060104Z 25008KT 17/05 A2995 RMK A01 T01730050  RH  044%=      5-min Rain = 0
KWT1 060105Z 25008KT 17/05 A2995 RMK A01 T01720050  RH  044%=      5-min Rain = 0
KWT1 060106Z 25008KT 17/05 A2995 RMK A01 T01720050  RH  044%=      5-min Rain = 0
KWT1 060107Z 25008KT 17/05 A2995 RMK A01 T01710050  RH  045%=      5-min Rain = 0
KWT1 060108Z 25008KT 17/05 A2995 RMK A01 T01710049  RH  045%=      5-min Rain = 0
KWT1 060109Z 25007KT 17/05 A2995 RMK A01 T01700050  RH  045%=      5-min Rain = 0
KWT1 060110Z 26007KT 17/05 A2995 RMK A01 T01700050  RH  045%=      5-min Rain = 0
KWT1 060111Z 29009KT 17/05 A2996 RMK A01 T01690050  RH  045%=      5-min Rain = 0
KWT1 060112Z 31012KT 17/05 A2997 RMK A01 T01660049  RH  046%=      5-min Rain = 0
KWT1 060113Z 29009KT 16/05 A2996 RMK A01 T01640050  RH  047%=      5-min Rain = 0
KWT1 060114Z 28009KT 17/05 A2996 RMK A01 T01650051  RH  047%=      5-min Rain = 0
KWT1 060115Z 28010G16KT 17/05 A2996 RMK A01 T01680052  RH  046%=      5-min Rain = 0
KWT1 060116Z 27009KT 18/05 A2996 RMK A01 T01780054  RH  044%=      5-min Rain = 0
KWT1 060117Z 27009KT 18/05 A2996 RMK A01 T01800053  RH  043%=      5-min Rain = 0
KWT1 060118Z 28010KT 18/05 A2996 RMK A01 T01790052  RH  043%=      5-min Rain = 0
KWT1 060119Z 28010KT 18/05 A2996 RMK A01 T01790052  RH  043%=      5-min Rain = 0
KWT1 060120Z 29009KT 18/05 A2997 RMK A01 T01790052  RH  043%=      5-min Rain = 0
KWT1 060121Z 29007KT 18/05 A2997 RMK A01 T01790052  RH  043%=      5-min Rain = 0
KWT1 060122Z 29007KT 18/05 A2997 RMK A01 T01770052  RH  044%=      5-min Rain = 0
KWT1 060123Z 28006KT 18/05 A2997 RMK A01 T01750052  RH  044%=      5-min Rain = 0
KWT1 060124Z 29006KT 17/05 A2997 RMK A01 T01740051  RH  044%=      5-min Rain = 0
KWT1 060125Z 28006KT 17/05 A2997 RMK A01 T01720051  RH  045%=      5-min Rain = 0
KWT1 060126Z 28006KT 17/05 A2997 RMK A01 T01710051  RH  045%=      5-min Rain = 0
KWT1 060127Z 28006KT 17/05 A2997 RMK A01 T01690051  RH  046%=      5-min Rain = 0
KWT1 060128Z 28006KT 17/05 A2997 RMK A01 T01680051  RH  046%=      5-min Rain = 0
KWT1 060129Z 27006KT 17/05 A2997 RMK A01 T01670052  RH  046%=      5-min Rain = 0
KWT1 060130Z 27007KT 17/05 A2997 RMK A01 T01660052  RH  047%=      5-min Rain = 0
KWT1 060131Z 27007KT 17/05 A2997 RMK A01 T01650052  RH  047%=      5-min Rain = 0
KWT1 060132Z 27008KT 16/05 A2997 RMK A01 T01640052  RH  047%=      5-min Rain = 0
KWT1 060133Z 27008KT 16/05 A2997 RMK A01 T01640052  RH  048%=      5-min Rain = 0
KWT1 060134Z 27008KT 16/05 A2997 RMK A01 T01640053  RH  048%=      5-min Rain = 0
KWT1 060135Z 27008KT 17/05 A2997 RMK A01 T01650053  RH  048%=      5-min Rain = 0
KWT1 060136Z 27008KT 17/05 A2997 RMK A01 T01650053  RH  047%=      5-min Rain = 0
KWT1 060137Z 27008KT 16/05 A2997 RMK A01 T01640053  RH  048%=      5-min Rain = 0
KWT1 060138Z 27009KT 16/05 A2997 RMK A01 T01630053  RH  048%=      5-min Rain = 0
KWT1 060139Z 27008KT 16/05 A2998 RMK A01 T01630053  RH  048%=      5-min Rain = 0
KWT1 060140Z 27008KT 16/05 A2998 RMK A01 T01640053  RH  048%=      5-min Rain = 0
KWT1 060141Z 27008KT 17/05 A2998 RMK A01 T01650053  RH  048%=      5-min Rain = 0
KWT1 060142Z 27009KT 17/05 A2998 RMK A01 T01660054  RH  047%=      5-min Rain = 0
KWT1 060143Z 26009KT 17/05 A2998 RMK A01 T01660054  RH  047%=      5-min Rain = 0
KWT1 060144Z 26009KT 17/05 A2998 RMK A01 T01660054  RH  047%=      5-min Rain = 0
KWT1 060145Z 26008KT 17/05 A2998 RMK A01 T01670054  RH  047%=      5-min Rain = 0
KWT1 060146Z 27008KT 17/05 A2998 RMK A01 T01660053  RH  047%=      5-min Rain = 0
KWT1 060147Z 27008KT 17/05 A2998 RMK A01 T01660053  RH  047%=      5-min Rain = 0
KWT1 060148Z 26008KT 17/05 A2998 RMK A01 T01660054  RH  047%=      5-min Rain = 0
KWT1 060149Z 26009KT 17/05 A2998 RMK A01 T01660054  RH  048%=      5-min Rain = 0
KWT1 060150Z 26009KT 17/05 A2998 RMK A01 T01650054  RH  048%=      5-min Rain = 0
KWT1 060151Z 26008KT 16/05 A2998 RMK A01 T01640054  RH  048%=      5-min Rain = 0
KWT1 060152Z 26008KT 16/05 A2998 RMK A01 T01640054  RH  048%=      5-min Rain = 0
KWT1 060153Z 26008KT 16/05 A2998 RMK A01 T01630054  RH  048%=      5-min Rain = 0
KWT1 060154Z 27007KT 16/05 A2998 RMK A01 T01620053  RH  048%=      5-min Rain = 0
KWT1 060155Z 27007KT 16/05 A2998 RMK A01 T01620053  RH  048%=      5-min Rain = 0
KWT1 060156Z 28007KT 16/05 A2998 RMK A01 T01610053  RH  048%=      5-min Rain = 0
KWT1 060157Z 27007KT 16/05 A2998 RMK A01 T01610052  RH  049%=      5-min Rain = 0
KWT1 060158Z 27007KT 16/05 A2998 RMK A01 T01610053  RH  049%=      5-min Rain = 0
KWT1 060159Z 27008KT 16/05 A2998 RMK A01 T01600053  RH  049%=      5-min Rain = 0
KWT1 060200Z 27008KT 16/05 A2998 RMK A01 T01590052  RH  049%=      5-min Rain = 0
KWT1 060201Z 27008KT 16/05 A2998 RMK A01 T01580052  RH  049%=      5-min Rain = 0
KWT1 060202Z 27008KT 16/05 A2998 RMK A01 T01580053  RH  050%=      5-min Rain = 0
KWT1 060203Z 27008KT 16/05 A2998 RMK A01 T01570053  RH  050%=      5-min Rain = 0
KWT1 060204Z 27008KT 16/05 A2998 RMK A01 T01570053  RH  050%=      5-min Rain = 0
KWT1 060205Z 27008KT 16/05 A2999 RMK A01 T01560054  RH  050%=      5-min Rain = 0
KWT1 060206Z 27008KT 16/05 A2999 RMK A01 T01560054  RH  050%=      5-min Rain = 0
KWT1 060207Z 27008KT 16/05 A2999 RMK A01 T01560054  RH  051%=      5-min Rain = 0
KWT1 060208Z 27008KT 16/05 A2999 RMK A01 T01550053  RH  051%=      5-min Rain = 0
KWT1 060209Z 27008KT 16/05 A2999 RMK A01 T01550053  RH  051%=      5-min Rain = 0
KWT1 060210Z 28008KT 15/05 A2999 RMK A01 T01540053  RH  051%=      5-min Rain = 0
KWT1 060211Z 28008KT 15/05 A2999 RMK A01 T01530053  RH  051%=      5-min Rain = 0
KWT1 060212Z 28008KT 15/05 A2999 RMK A01 T01530053  RH  051%=      5-min Rain = 0
KWT1 060213Z 28008KT 15/05 A2999 RMK A01 T01520053  RH  052%=      5-min Rain = 0
KWT1 060214Z 28009KT 15/05 A2999 RMK A01 T01510053  RH  052%=      5-min Rain = 0
KWT1 060215Z 28010KT 15/05 A2999 RMK A01 T01510053  RH  052%=      5-min Rain = 0
KWT1 060216Z 28010KT 15/05 A2999 RMK A01 T01520053  RH  052%=      5-min Rain = 0
KWT1 060217Z 29010KT 15/05 A2999 RMK A01 T01530053  RH  051%=      5-min Rain = 0
KWT1 060218Z 29010KT 15/05 A2999 RMK A01 T01530053  RH  051%=      5-min Rain = 0
KWT1 060219Z 29010KT 15/05 A30 RMK A01 T01540053  RH  051%=      5-min Rain = 0
KWT1 060220Z 29009KT 16/05 A30 RMK A01 T01550053  RH  051%=      5-min Rain = 0
KWT1 060221Z 29009KT 16/05 A30 RMK A01 T01550053  RH  050%=      5-min Rain = 0
KWT1 060222Z 29010KT 16/05 A30 RMK A01 T01550052  RH  051%=      5-min Rain = 0
KWT1 060223Z 29009KT 15/05 A30 RMK A01 T01540052  RH  051%=      5-min Rain = 0
KWT1 060224Z 28009KT 15/05 A30 RMK A01 T01530052  RH  051%=      5-min Rain = 0
KWT1 060225Z 28009KT 15/05 A30 RMK A01 T01540052  RH  051%=      5-min Rain = 0
KWT1 060226Z 28010KT 15/05 A30 RMK A01 T01540052  RH  051%=      5-min Rain = 0
KWT1 060227Z 29009KT 15/05 A30 RMK A01 T01530052  RH  051%=      5-min Rain = 0
KWT1 060228Z 29009KT 15/05 A30 RMK A01 T01540052  RH  051%=      5-min Rain = 0
KWT1 060229Z 28010KT 15/05 A30 RMK A01 T01540052  RH  051%=      5-min Rain = 0
KWT1 060230Z 28009KT 15/05 A30 RMK A01 T01540052  RH  051%=      5-min Rain = 0
KWT1 060231Z 28009KT 15/05 A30 RMK A01 T01530052  RH  051%=      5-min Rain = 0
KWT1 060232Z 29009KT 15/05 A30 RMK A01 T01530052  RH  051%=      5-min Rain = 0
KWT1 060233Z 29009KT 15/05 A30 RMK A01 T01520052  RH  051%=      5-min Rain = 0
KWT1 060234Z 29009KT 15/05 A30 RMK A01 T01510052  RH  051%=      5-min Rain = 0
KWT1 060235Z 29008KT 15/05 A30 RMK A01 T01510052  RH  052%=      5-min Rain = 0
KWT1 060236Z 29009KT 15/05 A30 RMK A01 T01510052  RH  052%=      5-min Rain = 0
KWT1 060237Z 29008KT 15/05 A3001 RMK A01 T01490052  RH  052%=      5-min Rain = 0
KWT1 060238Z 29009KT 15/05 A3001 RMK A01 T01480052  RH  052%=      5-min Rain = 0
KWT1 060239Z 28009KT 15/05 A30 RMK A01 T01480052  RH  052%=      5-min Rain = 0
KWT1 060240Z 28008KT 15/05 A30 RMK A01 T01490052  RH  052%=      5-min Rain = 0
KWT1 060241Z 28009KT 15/05 A3001 RMK A01 T01480051  RH  052%=      5-min Rain = 0
KWT1 060242Z 28008KT 15/05 A3001 RMK A01 T01480051  RH  052%=      5-min Rain = 0
KWT1 060243Z 28009KT 15/05 A3001 RMK A01 T01470051  RH  053%=      5-min Rain = 0
KWT1 060244Z 28008KT 15/05 A3001 RMK A01 T01460051  RH  053%=      5-min Rain = 0
KWT1 060245Z 28009KT 15/05 A3001 RMK A01 T01450050  RH  053%=      5-min Rain = 0
KWT1 060246Z 28009KT 15/05 A3001 RMK A01 T01450050  RH  053%=      5-min Rain = 0
KWT1 060247Z 28008KT 15/05 A3001 RMK A01 T01450050  RH  053%=      5-min Rain = 0
KWT1 060248Z 28009KT 15/05 A3001 RMK A01 T01450049  RH  053%=      5-min Rain = 0
KWT1 060249Z 28009KT 15/05 A3001 RMK A01 T01450049  RH  052%=      5-min Rain = 0
KWT1 060250Z 28009KT 15/05 A3001 RMK A01 T01450049  RH  052%=      5-min Rain = 0
KWT1 060251Z 28009KT 15/05 A3001 RMK A01 T01450048  RH  052%=      5-min Rain = 0
KWT1 060252Z 28009KT 15/05 A3001 RMK A01 T01460048  RH  052%=      5-min Rain = 0
KWT1 060253Z 28009KT 15/05 A3001 RMK A01 T01460048  RH  052%=      5-min Rain = 0
KWT1 060254Z 28010KT 15/05 A3001 RMK A01 T01450047  RH  052%=      5-min Rain = 0
KWT1 060255Z 28010KT 15/05 A3001 RMK A01 T01450047  RH  052%=      5-min Rain = 0
KWT1 060256Z 28009KT 15/05 A3001 RMK A01 T01460047  RH  052%=      5-min Rain = 0
KWT1 060257Z 28010KT 15/05 A3001 RMK A01 T01460047  RH  051%=      5-min Rain = 0
KWT1 060258Z 28009KT 15/05 A3001 RMK A01 T01460046  RH  051%=      5-min Rain = 0
KWT1 060259Z 28009KT 15/05 A3001 RMK A01 T01460046  RH  051%=      5-min Rain = 0
KWT1 060300Z 28009KT 15/05 A3001 RMK A01 T01450046  RH  051%=      5-min Rain = 0
KWT1 060301Z 28009KT 14/05 A3001 RMK A01 T01440046  RH  052%=      5-min Rain = 0
KWT1 060302Z 28010KT 14/05 A3001 RMK A01 T01440046  RH  052%=      5-min Rain = 0
KWT1 060303Z 28009KT 14/05 A3002 RMK A01 T01440045  RH  051%=      5-min Rain = 0
KWT1 060304Z 28009KT 14/05 A3002 RMK A01 T01440045  RH  051%=      5-min Rain = 0
KWT1 060305Z 28010KT 15/04 A3002 RMK A01 T01450044  RH  051%=      5-min Rain = 0
KWT1 060306Z 28010KT 15/04 A3002 RMK A01 T01450044  RH  051%=      5-min Rain = 0
KWT1 060307Z 28009KT 15/04 A3002 RMK A01 T01450044  RH  051%=      5-min Rain = 0
KWT1 060308Z 28010KT 15/04 A3002 RMK A01 T01450044  RH  050%=      5-min Rain = 0
KWT1 060309Z 28010KT 15/04 A3002 RMK A01 T01450043  RH  050%=      5-min Rain = 0
KWT1 060310Z 28010KT 15/04 A3002 RMK A01 T01460043  RH  050%=      5-min Rain = 0
KWT1 060311Z 28010KT 15/04 A3002 RMK A01 T01460042  RH  050%=      5-min Rain = 0
KWT1 060312Z 28010KT 15/04 A3002 RMK A01 T01460042  RH  050%=      5-min Rain = 0
KWT1 060313Z 28010KT 15/04 A3002 RMK A01 T01460042  RH  050%=      5-min Rain = 0
KWT1 060314Z 28010KT 15/04 A3002 RMK A01 T01450041  RH  050%=      5-min Rain = 0
KWT1 060315Z 28010KT 14/04 A3002 RMK A01 T01440041  RH  050%=      5-min Rain = 0
KWT1 060316Z 28010KT 14/04 A3002 RMK A01 T01440040  RH  049%=      5-min Rain = 0
KWT1 060317Z 28010KT 15/04 A3002 RMK A01 T01450040  RH  049%=      5-min Rain = 0
KWT1 060318Z 28010KT 15/04 A3002 RMK A01 T01460039  RH  049%=      5-min Rain = 0
KWT1 060319Z 28010KT 15/04 A3002 RMK A01 T01460039  RH  049%=      5-min Rain = 0
KWT1 060320Z 28009KT 15/04 A3002 RMK A01 T01460039  RH  048%=      5-min Rain = 0
KWT1 060321Z 28010KT 15/04 A3002 RMK A01 T01460039  RH  049%=      5-min Rain = 0
KWT1 060322Z 28009KT 15/04 A3002 RMK A01 T01460039  RH  049%=      5-min Rain = 0
KWT1 060323Z 27009KT 15/04 A3002 RMK A01 T01460039  RH  049%=      5-min Rain = 0
KWT1 060324Z 28009KT 15/04 A3002 RMK A01 T01450039  RH  049%=      5-min Rain = 0
KWT1 060325Z 28009KT 14/04 A3002 RMK A01 T01440039  RH  049%=      5-min Rain = 0
KWT1 060326Z 27010KT 14/04 A3002 RMK A01 T01440039  RH  049%=      5-min Rain = 0
KWT1 060327Z 28009KT 15/04 A3002 RMK A01 T01450039  RH  049%=      5-min Rain = 0
KWT1 060328Z 28009KT 14/04 A3002 RMK A01 T01440039  RH  049%=      5-min Rain = 0
KWT1 060329Z 28009KT 14/04 A3002 RMK A01 T01440039  RH  049%=      5-min Rain = 0
KWT1 060330Z 28009KT 14/04 A3002 RMK A01 T01440038  RH  049%=      5-min Rain = 0
KWT1 060331Z 28009KT 14/04 A3002 RMK A01 T01440038  RH  049%=      5-min Rain = 0
KWT1 060332Z 28010KT 14/04 A3002 RMK A01 T01430037  RH  049%=      5-min Rain = 0
KWT1 060333Z 28010KT 14/04 A3003 RMK A01 T01430037  RH  049%=      5-min Rain = 0
KWT1 060334Z 28010KT 14/04 A3003 RMK A01 T01420037  RH  049%=      5-min Rain = 0
KWT1 060335Z 28010KT 14/04 A3003 RMK A01 T01420036  RH  049%=      5-min Rain = 0
KWT1 060336Z 28010KT 14/04 A3003 RMK A01 T01430036  RH  048%=      5-min Rain = 0
KWT1 060337Z 28010KT 14/04 A3003 RMK A01 T01440035  RH  048%=      5-min Rain = 0
KWT1 060338Z 28009KT 14/04 A3003 RMK A01 T01440035  RH  048%=      5-min Rain = 0
KWT1 060339Z 28010KT 14/04 A3003 RMK A01 T01440035  RH  048%=      5-min Rain = 0
KWT1 060340Z 28009KT 14/04 A3003 RMK A01 T01440035  RH  048%=      5-min Rain = 0
KWT1 060341Z 28008KT 14/04 A3003 RMK A01 T01430035  RH  048%=      5-min Rain = 0
KWT1 060342Z 28009KT 14/04 A3003 RMK A01 T01420035  RH  048%=      5-min Rain = 0
KWT1 060343Z 28010KT 14/04 A3003 RMK A01 T01410035  RH  049%=      5-min Rain = 0
KWT1 060344Z 28009KT 14/04 A3003 RMK A01 T01400035  RH  049%=      5-min Rain = 0
KWT1 060345Z 28009KT 14/04 A3004 RMK A01 T01400035  RH  049%=      5-min Rain = 0
KWT1 060346Z 28009KT 14/04 A3004 RMK A01 T01400036  RH  049%=      5-min Rain = 0
KWT1 060347Z 28010KT 14/04 A3004 RMK A01 T01390036  RH  050%=      5-min Rain = 0
KWT1 060348Z 28010KT 14/04 A3004 RMK A01 T01390035  RH  050%=      5-min Rain = 0
KWT1 060349Z 28010KT 14/04 A3004 RMK A01 T01400035  RH  049%=      5-min Rain = 0
KWT1 060350Z 28010KT 14/04 A3004 RMK A01 T01400035  RH  049%=      5-min Rain = 0
KWT1 060351Z 28010KT 14/04 A3004 RMK A01 T01400035  RH  049%=      5-min Rain = 0
KWT1 060352Z 28009KT 14/03 A3004 RMK A01 T01390034  RH  049%=      5-min Rain = 0
KWT1 060353Z 28010KT 14/03 A3004 RMK A01 T01390034  RH  049%=      5-min Rain = 0
KWT1 060354Z 28009KT 14/03 A3004 RMK A01 T01390034  RH  049%=      5-min Rain = 0
KWT1 060355Z 28009KT 14/03 A3004 RMK A01 T01380034  RH  049%=      5-min Rain = 0
KWT1 060356Z 28010KT 14/03 A3004 RMK A01 T01370034  RH  050%=      5-min Rain = 0
KWT1 060357Z 28010KT 14/03 A3004 RMK A01 T01370033  RH  049%=      5-min Rain = 0
KWT1 060358Z 28009KT 14/03 A3004 RMK A01 T01380033  RH  049%=      5-min Rain = 0
KWT1 060359Z 28009KT 14/03 A3004 RMK A01 T01370033  RH  049%=      5-min Rain = 0
KWT1 060400Z 28010KT 14/03 A3004 RMK A01 T01380033  RH  049%=      5-min Rain = 0
KWT1 060401Z 28010KT 14/03 A3004 RMK A01 T01380032  RH  049%=      5-min Rain = 0
KWT1 060402Z 28009KT 14/03 A3004 RMK A01 T01370033  RH  049%=      5-min Rain = 0
KWT1 060403Z 28010KT 14/03 A3004 RMK A01 T01370032  RH  049%=      5-min Rain = 0
KWT1 060404Z 28010KT 14/03 A3005 RMK A01 T01380031  RH  049%=      5-min Rain = 0
KWT1 060405Z 28010KT 14/03 A3005 RMK A01 T01390031  RH  048%=      5-min Rain = 0
KWT1 060406Z 28010KT 14/03 A3005 RMK A01 T01390030  RH  048%=      5-min Rain = 0
KWT1 060407Z 28009KT 14/03 A3005 RMK A01 T01380030  RH  048%=      5-min Rain = 0
KWT1 060408Z 28009KT 14/03 A3005 RMK A01 T01380030  RH  048%=      5-min Rain = 0
KWT1 060409Z 27009KT 14/03 A3005 RMK A01 T01370029  RH  048%=      5-min Rain = 0
KWT1 060410Z 28009KT 14/03 A3005 RMK A01 T01350029  RH  049%=      5-min Rain = 0
KWT1 060411Z 28009KT 14/03 A3005 RMK A01 T01350028  RH  049%=      5-min Rain = 0
KWT1 060412Z 28008KT 14/03 A3005 RMK A01 T01350028  RH  048%=      5-min Rain = 0
KWT1 060413Z 28009KT 14/03 A3006 RMK A01 T01350028  RH  048%=      5-min Rain = 0
KWT1 060414Z 28010KT 14/03 A3006 RMK A01 T01350027  RH  048%=      5-min Rain = 0
KWT1 060415Z 28010KT 14/03 A3006 RMK A01 T01360027  RH  048%=      5-min Rain = 0
KWT1 060416Z 28010KT 14/03 A3006 RMK A01 T01360027  RH  048%=      5-min Rain = 0
KWT1 060417Z 29011KT 14/03 A3006 RMK A01 T01370027  RH  047%=      5-min Rain = 0
KWT1 060418Z 29010KT 14/03 A3006 RMK A01 T01370027  RH  047%=      5-min Rain = 0
KWT1 060419Z 29010KT 14/03 A3006 RMK A01 T01380026  RH  047%=      5-min Rain = 0
KWT1 060420Z 29010KT 14/03 A3006 RMK A01 T01380026  RH  046%=      5-min Rain = 0
KWT1 060421Z 29010KT 14/03 A3006 RMK A01 T01390025  RH  046%=      5-min Rain = 0
KWT1 060422Z 30010KT 14/02 A3006 RMK A01 T01420024  RH  045%=      5-min Rain = 0
KWT1 060423Z 30010KT 14/02 A3007 RMK A01 T01430024  RH  044%=      5-min Rain = 0
KWT1 060424Z 30011KT 14/02 A3007 RMK A01 T01440023  RH  044%=      5-min Rain = 0
KWT1 060425Z 30009KT 15/02 A3007 RMK A01 T01460023  RH  043%=      5-min Rain = 0
KWT1 060426Z 30010KT 15/02 A3007 RMK A01 T01460023  RH  043%=      5-min Rain = 0
KWT1 060427Z 30009KT 14/02 A3007 RMK A01 T01440022  RH  044%=      5-min Rain = 0
KWT1 060428Z 30010KT 14/02 A3007 RMK A01 T01430022  RH  044%=      5-min Rain = 0
KWT1 060429Z 31009KT 14/02 A3007 RMK A01 T01430021  RH  044%=      5-min Rain = 0
KWT1 060430Z 31008KT 14/02 A3007 RMK A01 T01440021  RH  044%=      5-min Rain = 0
KWT1 060431Z 31008KT 14/02 A3007 RMK A01 T01420021  RH  044%=      5-min Rain = 0
KWT1 060432Z 32010KT 14/02 A3007 RMK A01 T01410020  RH  044%=      5-min Rain = 0
KWT1 060433Z 32012KT 15/02 A3007 RMK A01 T01450019  RH  042%=      5-min Rain = 0
KWT1 060434Z 32013KT 15/02 A3007 RMK A01 T01520018  RH  040%=      5-min Rain = 0
KWT1 060435Z 32012KT 16/02 A3007 RMK A01 T01570018  RH  039%=      5-min Rain = 0
KWT1 060436Z 32014KT 16/02 A3007 RMK A01 T01590016  RH  038%=      5-min Rain = 0
KWT1 060437Z 32015KT 16/02 A3007 RMK A01 T01610015  RH  037%=      5-min Rain = 0
KWT1 060438Z 32014KT 16/02 A3007 RMK A01 T01640015  RH  037%=      5-min Rain = 0
KWT1 060439Z 32012KT 16/02 A3007 RMK A01 T01640015  RH  036%=      5-min Rain = 0
KWT1 060440Z 32011KT 16/02 A3007 RMK A01 T01620015  RH  037%=      5-min Rain = 0
KWT1 060441Z 32014KT 16/01 A3007 RMK A01 T01620014  RH  037%=      5-min Rain = 0
KWT1 060442Z 32012KT 16/02 A3008 RMK A01 T01630015  RH  037%=      5-min Rain = 0
KWT1 060443Z 33011G16KT 16/01 A3008 RMK A01 T01620014  RH  037%=      5-min Rain = 0
KWT1 060444Z 33014KT 16/02 A3008 RMK A01 T01610015  RH  037%=      5-min Rain = 0
KWT1 060445Z 32016KT 16/01 A3008 RMK A01 T01610014  RH  037%=      5-min Rain = 0
KWT1 060446Z 33016KT 16/01 A3008 RMK A01 T01610014  RH  037%=      5-min Rain = 0
KWT1 060447Z 33014KT 16/01 A3008 RMK A01 T01610014  RH  037%=      5-min Rain = 0
KWT1 060448Z 33012G18KT 16/02 A3008 RMK A01 T01610015  RH  037%=      5-min Rain = 0
KWT1 060449Z 33011KT 16/02 A3008 RMK A01 T01600015  RH  037%=      5-min Rain = 0
KWT1 060450Z 34015KT 16/02 A3008 RMK A01 T01590015  RH  038%=      5-min Rain = 0
KWT1 060451Z 33012KT 16/02 A3008 RMK A01 T01580016  RH  038%=      5-min Rain = 0
KWT1 060452Z 33012KT 16/02 A3008 RMK A01 T01580016  RH  038%=      5-min Rain = 0
KWT1 060453Z 33014KT 16/02 A3008 RMK A01 T01570016  RH  039%=      5-min Rain = 0
KWT1 060454Z 33014G19KT 16/02 A3008 RMK A01 T01570016  RH  039%=      5-min Rain = 0
KWT1 060455Z 33013KT 16/02 A3008 RMK A01 T01570017  RH  039%=      5-min Rain = 0
KWT1 060456Z 33014KT 16/02 A3008 RMK A01 T01570017  RH  039%=      5-min Rain = 0
KWT1 060457Z 33015KT 16/02 A3009 RMK A01 T01570018  RH  039%=      5-min Rain = 0
KWT1 060458Z 33015KT 16/02 A3009 RMK A01 T01550017  RH  039%=      5-min Rain = 0
KWT1 060459Z 33015G20KT 16/02 A3009 RMK A01 T01550017  RH  039%=      5-min Rain = 0
KWT1 060500Z 33015G20KT 16/02 A3009 RMK A01 T01560018  RH  039%=      5-min Rain = 0
KWT1 060501Z 33015KT 16/02 A3009 RMK A01 T01550018  RH  040%=      5-min Rain = 0
KWT1 060502Z 33014KT 15/02 A3009 RMK A01 T01540018  RH  040%=      5-min Rain = 0
KWT1 060503Z 33014KT 15/02 A3009 RMK A01 T01540018  RH  040%=      5-min Rain = 0
KWT1 060504Z 33014G19KT 15/02 A3009 RMK A01 T01540019  RH  040%=      5-min Rain = 0
KWT1 060505Z 33014KT 15/02 A3009 RMK A01 T01530019  RH  040%=      5-min Rain = 0
KWT1 060506Z 33016KT 15/02 A3009 RMK A01 T01520020  RH  041%=      5-min Rain = 0
KWT1 060507Z 33013KT 15/02 A3009 RMK A01 T01520020  RH  041%=      5-min Rain = 0
KWT1 060508Z 33012KT 15/02 A3009 RMK A01 T01510020  RH  041%=      5-min Rain = 0
KWT1 060509Z 33014KT 15/02 A3009 RMK A01 T01510021  RH  041%=      5-min Rain = 0
KWT1 060510Z 33016KT 15/02 A3009 RMK A01 T01500021  RH  042%=      5-min Rain = 0
KWT1 060511Z 33016G21KT 15/02 A3009 RMK A01 T01500022  RH  042%=      5-min Rain = 0
KWT1 060512Z 33014KT 15/02 A3009 RMK A01 T01500023  RH  042%=      5-min Rain = 0
KWT1 060513Z 33015KT 15/02 A3009 RMK A01 T01490023  RH  043%=      5-min Rain = 0
KWT1 060514Z 33018KT 15/02 A3009 RMK A01 T01490024  RH  043%=      5-min Rain = 0
KWT1 060515Z 33015KT 15/02 A3009 RMK A01 T01490024  RH  043%=      5-min Rain = 0
KWT1 060516Z 33014KT 15/03 A301 RMK A01 T01490025  RH  043%=      5-min Rain = 0
KWT1 060517Z 33013G18KT 15/03 A301 RMK A01 T01480025  RH  043%=      5-min Rain = 0
KWT1 060518Z 33018KT 15/03 A3009 RMK A01 T01470026  RH  044%=      5-min Rain = 0
KWT1 060519Z 33017KT 15/03 A301 RMK A01 T01470026  RH  044%=      5-min Rain = 0
KWT1 060520Z 33014KT 15/03 A301 RMK A01 T01470026  RH  044%=      5-min Rain = 0
KWT1 060521Z 33014KT 15/03 A301 RMK A01 T01460026  RH  044%=      5-min Rain = 0
KWT1 060522Z 33014G19KT 15/03 A301 RMK A01 T01460026  RH  044%=      5-min Rain = 0
KWT1 060523Z 33012KT 15/03 A301 RMK A01 T01450026  RH  045%=      5-min Rain = 0
KWT1 060524Z 33013KT 14/03 A301 RMK A01 T01430026  RH  045%=      5-min Rain = 0
KWT1 060525Z 33014KT 14/03 A301 RMK A01 T01430026  RH  045%=      5-min Rain = 0
KWT1 060526Z 33013KT 14/03 A301 RMK A01 T01430026  RH  045%=      5-min Rain = 0
KWT1 060527Z 34014KT 14/03 A301 RMK A01 T01420026  RH  046%=      5-min Rain = 0
KWT1 060528Z 34011KT 14/03 A301 RMK A01 T01420026  RH  046%=      5-min Rain = 0
KWT1 060529Z 33013KT 14/03 A301 RMK A01 T01410026  RH  046%=      5-min Rain = 0
KWT1 060530Z 33011KT 14/03 A301 RMK A01 T01400026  RH  046%=      5-min Rain = 0
KWT1 060531Z 33012KT 14/03 A301 RMK A01 T01390026  RH  046%=      5-min Rain = 0
KWT1 060532Z 33011KT 14/03 A301 RMK A01 T01380026  RH  047%=      5-min Rain = 0
KWT1 060533Z 33011KT 14/03 A301 RMK A01 T01380026  RH  047%=      5-min Rain = 0
KWT1 060534Z 33010KT 14/03 A301 RMK A01 T01390026  RH  047%=      5-min Rain = 0
KWT1 060535Z 33012KT 14/03 A301 RMK A01 T01370026  RH  047%=      5-min Rain = 0
KWT1 060536Z 33010KT 14/03 A301 RMK A01 T01370026  RH  047%=      5-min Rain = 0
KWT1 060537Z 33010KT 14/03 A301 RMK A01 T01370026  RH  047%=      5-min Rain = 0
KWT1 060538Z 33009KT 14/03 A301 RMK A01 T01350026  RH  048%=      5-min Rain = 0
KWT1 060539Z 33009KT 13/03 A3011 RMK A01 T01340026  RH  048%=      5-min Rain = 0
KWT1 060540Z 34011KT 13/03 A3011 RMK A01 T01340026  RH  048%=      5-min Rain = 0
KWT1 060541Z 33010KT 13/03 A3011 RMK A01 T01330027  RH  048%=      5-min Rain = 0
KWT1 060542Z 33010KT 13/03 A3011 RMK A01 T01330027  RH  048%=      5-min Rain = 0
KWT1 060543Z 33009KT 13/03 A3011 RMK A01 T01340028  RH  048%=      5-min Rain = 0
KWT1 060544Z 33009KT 13/03 A3011 RMK A01 T01340027  RH  048%=      5-min Rain = 0
KWT1 060545Z 33008KT 13/03 A3011 RMK A01 T01330027  RH  049%=      5-min Rain = 0
KWT1 060546Z 33010KT 13/03 A3011 RMK A01 T01330027  RH  049%=      5-min Rain = 0
KWT1 060547Z 34010KT 13/03 A3011 RMK A01 T01330027  RH  049%=      5-min Rain = 0
KWT1 060548Z 33014KT 13/03 A3011 RMK A01 T01320027  RH  049%=      5-min Rain = 0
KWT1 060549Z 33011KT 13/03 A3011 RMK A01 T01330028  RH  049%=      5-min Rain = 0
KWT1 060550Z 34013G18KT 13/03 A3011 RMK A01 T01330027  RH  049%=      5-min Rain = 0
KWT1 060551Z 34014KT 13/03 A3011 RMK A01 T01330028  RH  049%=      5-min Rain = 0
KWT1 060552Z 34015KT 13/03 A3011 RMK A01 T01330028  RH  049%=      5-min Rain = 0
KWT1 060553Z 34016KT 13/03 A3011 RMK A01 T01340028  RH  049%=      5-min Rain = 0
KWT1 060554Z 33014KT 14/03 A3011 RMK A01 T01350028  RH  049%=      5-min Rain = 0
KWT1 060555Z 34014KT 13/03 A3011 RMK A01 T01340028  RH  049%=      5-min Rain = 0
KWT1 060556Z 34013KT 13/03 A3011 RMK A01 T01330028  RH  049%=      5-min Rain = 0
KWT1 060557Z 34013KT 13/03 A3011 RMK A01 T01320028  RH  049%=      5-min Rain = 0
KWT1 060558Z 34013KT 13/03 A3011 RMK A01 T01310027  RH  049%=      5-min Rain = 0
KWT1 060559Z 34013KT 13/03 A3011 RMK A01 T01310028  RH  049%=      5-min Rain = 0

Page generated in 0.1249 seconds.